Time,TemperatureF,DewpointF,PressureIn,WindDirection,WindDirectionDegrees,WindSpeedMPH,WindSpeedGustMPH,Humidity,HourlyPrecipIn,Conditions,Clouds,dailyrainin,SoftwareType,DateUTC
2013-06-18 00:01:00,82.2,76.2,30.06,SE,146,1.0,2.0,82,0.00,,,0.00,Wunderground v.1.15,2013-06-18 04:01:00,
2013-06-18 00:03:00,82.2,76.2,30.06,SE,137,1.0,2.0,82,0.00,,,0.00,Wunderground v.1.15,2013-06-18 04:03:00,
2013-06-18 00:05:00,82.2,76.2,30.06,SSE,147,2.0,3.0,82,0.00,,,0.00,Wunderground v.1.15,2013-06-18 04:05:00,
2013-06-18 00:06:00,82.2,76.2,30.06,SE,133,2.0,3.0,82,0.00,,,0.00,Wunderground v.1.15,2013-06-18 04:06:00,
2013-06-18 00:07:00,82.1,76.1,30.06,ESE,119,2.0,3.0,82,0.00,,,0.00,Wunderground v.1.15,2013-06-18 04:07:00,
2013-06-18 00:09:00,82.1,76.1,30.06,SE,129,1.0,3.0,82,0.00,,,0.00,Wunderground v.1.15,2013-06-18 04:09:00,
2013-06-18 00:12:00,82.1,76.1,30.05,ESE,105,1.0,3.0,82,0.00,,,0.00,Wunderground v.1.15,2013-06-18 04:12:00,
2013-06-18 00:14:00,82.1,76.1,30.05,SE,137,1.0,3.0,82,0.00,,,0.00,Wunderground v.1.15,2013-06-18 04:14:00,
2013-06-18 00:16:00,82.1,76.1,30.05,SE,141,1.0,3.0,82,0.00,,,0.00,Wunderground v.1.15,2013-06-18 04:16:00,
2013-06-18 00:19:00,82.0,76.0,30.05,ESE,116,1.0,3.0,82,0.00,,,0.00,Wunderground v.1.15,2013-06-18 04:19:00,
2013-06-18 00:20:00,82.0,76.3,30.05,SE,131,1.0,1.0,83,0.00,,,0.00,Wunderground v.1.15,2013-06-18 04:20:00,
2013-06-18 00:21:00,82.0,76.3,30.05,SE,141,1.0,1.0,83,0.00,,,0.00,Wunderground v.1.15,2013-06-18 04:21:00,
2013-06-18 00:24:00,81.9,76.2,30.04,ESE,110,1.0,2.0,83,0.00,,,0.00,Wunderground v.1.15,2013-06-18 04:24:00,
2013-06-18 00:25:00,81.9,76.2,30.04,ESE,110,1.0,2.0,83,0.00,,,0.00,Wunderground v.1.15,2013-06-18 04:25:00,
2013-06-18 00:26:00,81.9,76.2,30.04,ESE,108,1.0,2.0,83,0.00,,,0.00,Wunderground v.1.15,2013-06-18 04:26:00,
2013-06-18 00:30:00,81.8,76.1,30.04,ESE,106,1.0,1.0,83,0.00,,,0.00,Wunderground v.1.15,2013-06-18 04:30:00,
2013-06-18 00:31:00,81.8,76.1,30.04,SE,137,1.0,6.0,83,0.00,,,0.00,Wunderground v.1.15,2013-06-18 04:31:00,
2013-06-18 00:32:00,81.8,76.1,30.04,SE,129,1.0,6.0,83,0.00,,,0.00,Wunderground v.1.15,2013-06-18 04:32:00,
2013-06-18 00:36:00,81.8,76.1,30.04,SE,125,1.0,6.0,83,0.00,,,0.00,Wunderground v.1.15,2013-06-18 04:36:00,
2013-06-18 00:37:00,81.7,76.0,30.04,ESE,105,1.0,6.0,83,0.00,,,0.00,Wunderground v.1.15,2013-06-18 04:37:00,
2013-06-18 00:38:00,81.7,76.0,30.04,SE,124,1.0,6.0,83,0.00,,,0.00,Wunderground v.1.15,2013-06-18 04:38:00,
2013-06-18 00:40:00,81.7,76.0,30.04,SE,140,0.0,6.0,83,0.00,,,0.00,Wunderground v.1.15,2013-06-18 04:40:00,
2013-06-18 00:43:00,81.7,76.0,30.04,ESE,120,0.0,6.0,83,0.00,,,0.00,Wunderground v.1.15,2013-06-18 04:43:00,
2013-06-18 00:45:00,81.7,76.0,30.04,ESE,119,0.0,6.0,83,0.00,,,0.00,Wunderground v.1.15,2013-06-18 04:45:00,
2013-06-18 00:46:00,81.6,75.9,30.04,ESE,120,0.0,6.0,83,0.00,,,0.00,Wunderground v.1.15,2013-06-18 04:46:00,
2013-06-18 00:50:00,81.6,76.3,30.04,ESE,123,0.0,6.0,84,0.00,,,0.00,Wunderground v.1.15,2013-06-18 04:50:00,
2013-06-18 00:51:00,81.5,76.2,30.04,SSE,158,0.0,6.0,84,0.00,,,0.00,Wunderground v.1.15,2013-06-18 04:51:00,
2013-06-18 00:52:00,81.5,76.2,30.04,SSE,151,0.0,6.0,84,0.00,,,0.00,Wunderground v.1.15,2013-06-18 04:52:00,
2013-06-18 00:53:00,81.5,76.2,30.04,SSE,151,0.0,6.0,84,0.00,,,0.00,Wunderground v.1.15,2013-06-18 04:53:00,
2013-06-18 00:57:00,81.4,76.1,30.04,SE,124,0.0,6.0,84,0.00,,,0.00,Wunderground v.1.15,2013-06-18 04:57:00,
2013-06-18 00:59:00,81.4,76.1,30.04,ESE,113,0.0,6.0,84,0.00,,,0.00,Wunderground v.1.15,2013-06-18 04:59:00,
2013-06-18 01:02:00,81.4,76.1,30.04,SE,134,0.0,0.0,84,0.00,,,0.00,Wunderground v.1.15,2013-06-18 05:02:00,
2013-06-18 01:03:00,81.4,76.1,30.04,SE,134,0.0,0.0,84,0.00,,,0.00,Wunderground v.1.15,2013-06-18 05:03:00,
2013-06-18 01:07:00,81.2,75.9,30.04,SE,125,0.0,0.0,84,0.00,,,0.00,Wunderground v.1.15,2013-06-18 05:07:00,
2013-06-18 01:08:00,81.2,75.9,30.04,SE,126,0.0,0.0,84,0.00,,,0.00,Wunderground v.1.15,2013-06-18 05:08:00,
2013-06-18 01:09:00,81.2,75.9,30.04,SE,125,0.0,0.0,84,0.00,,,0.00,Wunderground v.1.15,2013-06-18 05:09:00,
2013-06-18 01:11:00,81.1,75.8,30.04,SE,125,0.0,0.0,84,0.00,,,0.00,Wunderground v.1.15,2013-06-18 05:11:00,
2013-06-18 01:14:00,81.0,76.1,30.04,SE,126,0.0,0.0,85,0.00,,,0.00,Wunderground v.1.15,2013-06-18 05:14:00,
2013-06-18 01:15:00,80.9,76.0,30.04,SE,125,0.0,0.0,85,0.00,,,0.00,Wunderground v.1.15,2013-06-18 05:15:00,
2013-06-18 01:19:00,80.8,75.9,30.04,ESE,122,0.0,0.0,85,0.00,,,0.00,Wunderground v.1.15,2013-06-18 05:19:00,
2013-06-18 01:20:00,80.8,75.9,30.04,ESE,122,0.0,0.0,85,0.00,,,0.00,Wunderground v.1.15,2013-06-18 05:20:00,
2013-06-18 01:22:00,80.7,75.8,30.04,ESE,122,0.0,0.0,85,0.00,,,0.00,Wunderground v.1.15,2013-06-18 05:22:00,
2013-06-18 01:23:00,80.7,75.8,30.04,ESE,122,0.0,0.0,85,0.00,,,0.00,Wunderground v.1.15,2013-06-18 05:23:00,
2013-06-18 01:27:00,80.7,75.8,30.04,ESE,122,0.0,0.0,85,0.00,,,0.00,Wunderground v.1.15,2013-06-18 05:27:00,
2013-06-18 01:28:00,80.6,75.7,30.04,ESE,122,0.0,0.0,85,0.00,,,0.00,Wunderground v.1.15,2013-06-18 05:28:00,
2013-06-18 01:29:00,80.6,76.0,30.04,ESE,122,0.0,0.0,86,0.00,,,0.00,Wunderground v.1.15,2013-06-18 05:29:00,
2013-06-18 01:30:00,80.7,76.1,30.04,ESE,122,0.0,0.0,86,0.00,,,0.00,Wunderground v.1.15,2013-06-18 05:30:00,
2013-06-18 01:33:00,80.6,75.7,30.04,ESE,122,0.0,3.0,85,0.00,,,0.00,Wunderground v.1.15,2013-06-18 05:33:00,
2013-06-18 01:34:00,80.6,76.0,30.04,ESE,114,0.0,3.0,86,0.00,,,0.00,Wunderground v.1.15,2013-06-18 05:34:00,
2013-06-18 01:35:00,80.6,76.0,30.04,ESE,114,0.0,3.0,86,0.00,,,0.00,Wunderground v.1.15,2013-06-18 05:35:00,
2013-06-18 01:37:00,80.6,75.7,30.03,ESE,114,0.0,3.0,85,0.00,,,0.00,Wunderground v.1.15,2013-06-18 05:37:00,
2013-06-18 01:40:00,80.6,75.7,30.03,SE,136,0.0,3.0,85,0.00,,,0.00,Wunderground v.1.15,2013-06-18 05:40:00,
2013-06-18 01:41:00,80.6,75.7,30.03,SE,135,0.0,3.0,85,0.00,,,0.00,Wunderground v.1.15,2013-06-18 05:41:00,
2013-06-18 01:42:00,80.6,75.7,30.03,SE,135,0.0,3.0,85,0.00,,,0.00,Wunderground v.1.15,2013-06-18 05:42:00,
2013-06-18 01:43:00,80.6,75.7,30.03,SE,135,0.0,3.0,85,0.00,,,0.00,Wunderground v.1.15,2013-06-18 05:43:00,
2013-06-18 01:46:00,80.6,75.7,30.03,SE,127,0.0,3.0,85,0.00,,,0.00,Wunderground v.1.15,2013-06-18 05:46:00,
2013-06-18 01:47:00,80.6,75.7,30.03,SE,127,0.0,3.0,85,0.00,,,0.00,Wunderground v.1.15,2013-06-18 05:47:00,
2013-06-18 01:48:00,80.6,75.7,30.03,SE,128,0.0,3.0,85,0.00,,,0.00,Wunderground v.1.15,2013-06-18 05:48:00,
2013-06-18 01:50:00,80.5,75.6,30.03,SE,127,0.0,3.0,85,0.00,,,0.00,Wunderground v.1.15,2013-06-18 05:50:00,
2013-06-18 01:54:00,80.4,75.8,30.03,SE,127,0.0,3.0,86,0.00,,,0.00,Wunderground v.1.15,2013-06-18 05:54:00,
2013-06-18 01:55:00,80.4,75.8,30.03,SE,127,0.0,3.0,86,0.00,,,0.00,Wunderground v.1.15,2013-06-18 05:55:00,
2013-06-18 01:56:00,80.4,75.8,30.03,SE,127,0.0,3.0,86,0.00,,,0.00,Wunderground v.1.15,2013-06-18 05:56:00,
2013-06-18 01:57:00,80.4,75.8,30.03,SE,127,0.0,3.0,86,0.00,,,0.00,Wunderground v.1.15,2013-06-18 05:57:00,
2013-06-18 02:00:00,80.3,75.7,30.03,SE,127,0.0,0.0,86,0.00,,,0.00,Wunderground v.1.15,2013-06-18 06:00:00,
2013-06-18 02:01:00,80.2,75.6,30.03,SE,127,0.0,0.0,86,0.00,,,0.00,Wunderground v.1.15,2013-06-18 06:01:00,
2013-06-18 02:02:00,80.2,75.6,30.03,SE,127,0.0,0.0,86,0.00,,,0.00,Wunderground v.1.15,2013-06-18 06:02:00,
2013-06-18 02:05:00,80.1,75.5,30.03,SE,127,0.0,0.0,86,0.00,,,0.00,Wunderground v.1.15,2013-06-18 06:05:00,
2013-06-18 02:06:00,80.1,75.5,30.03,SE,127,0.0,0.0,86,0.00,,,0.00,Wunderground v.1.15,2013-06-18 06:06:00,
2013-06-18 02:07:00,80.0,75.4,30.03,SE,127,0.0,0.0,86,0.00,,,0.00,Wunderground v.1.15,2013-06-18 06:07:00,
2013-06-18 02:08:00,80.0,75.4,30.03,SE,127,0.0,0.0,86,0.00,,,0.00,Wunderground v.1.15,2013-06-18 06:08:00,
2013-06-18 02:09:00,79.9,75.3,30.03,SE,127,0.0,0.0,86,0.00,,,0.00,Wunderground v.1.15,2013-06-18 06:09:00,
2013-06-18 02:11:00,79.9,75.3,30.03,SE,127,0.0,0.0,86,0.00,,,0.00,Wunderground v.1.15,2013-06-18 06:11:00,
2013-06-18 02:16:00,79.7,75.5,30.02,SE,127,0.0,0.0,87,0.00,,,0.00,Wunderground v.1.15,2013-06-18 06:16:00,
2013-06-18 02:17:00,79.7,75.5,30.02,SE,127,0.0,0.0,87,0.00,,,0.00,Wunderground v.1.15,2013-06-18 06:17:00,
2013-06-18 02:18:00,79.7,75.5,30.02,SE,127,0.0,0.0,87,0.00,,,0.00,Wunderground v.1.15,2013-06-18 06:18:00,
2013-06-18 02:20:00,79.6,75.4,30.02,SE,127,0.0,0.0,87,0.00,,,0.00,Wunderground v.1.15,2013-06-18 06:20:00,
2013-06-18 02:21:00,79.5,75.3,30.02,SE,127,0.0,0.0,87,0.00,,,0.00,Wunderground v.1.15,2013-06-18 06:21:00,
2013-06-18 02:22:00,79.5,75.3,30.02,SE,127,0.0,0.0,87,0.00,,,0.00,Wunderground v.1.15,2013-06-18 06:22:00,
2013-06-18 02:24:00,79.5,75.6,30.02,SE,127,0.0,0.0,88,0.00,,,0.00,Wunderground v.1.15,2013-06-18 06:24:00,
2013-06-18 02:25:00,79.5,75.6,30.02,SE,127,0.0,0.0,88,0.00,,,0.00,Wunderground v.1.15,2013-06-18 06:25:00,
2013-06-18 02:27:00,79.5,75.6,30.02,SE,127,0.0,0.0,88,0.00,,,0.00,Wunderground v.1.15,2013-06-18 06:27:00,
2013-06-18 02:30:00,79.4,75.5,30.02,SE,127,0.0,0.0,88,0.00,,,0.00,Wunderground v.1.15,2013-06-18 06:30:00,
2013-06-18 02:33:00,79.3,75.4,30.02,SE,127,0.0,1.0,88,0.00,,,0.00,Wunderground v.1.15,2013-06-18 06:33:00,
2013-06-18 02:34:00,79.2,75.3,30.02,SE,127,0.0,1.0,88,0.00,,,0.00,Wunderground v.1.15,2013-06-18 06:34:00,
2013-06-18 02:36:00,79.0,75.1,30.02,SE,127,0.0,1.0,88,0.00,,,0.00,Wunderground v.1.15,2013-06-18 06:36:00,
2013-06-18 02:38:00,78.9,75.0,30.02,SE,127,0.0,1.0,88,0.00,,,0.00,Wunderground v.1.15,2013-06-18 06:38:00,
2013-06-18 02:40:00,78.8,75.3,30.02,SE,127,0.0,1.0,89,0.00,,,0.00,Wunderground v.1.15,2013-06-18 06:40:00,
2013-06-18 02:41:00,78.8,74.9,30.02,SE,127,0.0,1.0,88,0.00,,,0.00,Wunderground v.1.15,2013-06-18 06:41:00,
2013-06-18 02:43:00,78.7,75.2,30.02,SE,127,0.0,1.0,89,0.00,,,0.00,Wunderground v.1.15,2013-06-18 06:43:00,
2013-06-18 02:45:00,78.5,75.0,30.02,SE,127,0.0,1.0,89,0.00,,,0.00,Wunderground v.1.15,2013-06-18 06:45:00,
2013-06-18 02:48:00,78.4,74.9,30.02,SE,127,0.0,1.0,89,0.00,,,0.00,Wunderground v.1.15,2013-06-18 06:48:00,
2013-06-18 02:49:00,78.4,74.9,30.02,SE,127,0.0,1.0,89,0.00,,,0.00,Wunderground v.1.15,2013-06-18 06:49:00,
2013-06-18 02:51:00,78.5,75.3,30.02,SE,127,0.0,1.0,90,0.00,,,0.00,Wunderground v.1.15,2013-06-18 06:51:00,
2013-06-18 02:54:00,78.5,75.3,30.02,SE,127,0.0,1.0,90,0.00,,,0.00,Wunderground v.1.15,2013-06-18 06:54:00,
2013-06-18 02:55:00,78.6,75.4,30.02,SE,127,0.0,1.0,90,0.00,,,0.00,Wunderground v.1.15,2013-06-18 06:55:00,
2013-06-18 02:58:00,78.5,75.3,30.02,SE,127,0.0,1.0,90,0.00,,,0.00,Wunderground v.1.15,2013-06-18 06:58:00,
2013-06-18 02:59:00,78.5,75.3,30.02,SE,127,0.0,1.0,90,0.00,,,0.00,Wunderground v.1.15,2013-06-18 06:59:00,
2013-06-18 03:00:00,78.5,75.3,30.02,SE,127,0.0,0.0,90,0.00,,,0.00,Wunderground v.1.15,2013-06-18 07:00:00,
2013-06-18 03:01:00,78.5,75.7,30.03,SE,127,0.0,0.0,91,0.00,,,0.00,Wunderground v.1.15,2013-06-18 07:01:00,
2013-06-18 03:04:00,78.5,75.7,30.03,SE,127,0.0,0.0,91,0.00,,,0.00,Wunderground v.1.15,2013-06-18 07:04:00,
2013-06-18 03:05:00,78.5,75.7,30.02,SE,127,0.0,0.0,91,0.00,,,0.00,Wunderground v.1.15,2013-06-18 07:05:00,
2013-06-18 03:07:00,78.5,75.7,30.02,SE,127,0.0,0.0,91,0.00,,,0.00,Wunderground v.1.15,2013-06-18 07:07:00,
2013-06-18 03:08:00,78.5,75.3,30.02,SE,127,0.0,0.0,90,0.00,,,0.00,Wunderground v.1.15,2013-06-18 07:08:00,
2013-06-18 03:13:00,78.3,75.1,30.02,SE,127,0.0,0.0,90,0.00,,,0.00,Wunderground v.1.15,2013-06-18 07:13:00,
2013-06-18 03:14:00,78.2,75.0,30.03,SE,127,0.0,0.0,90,0.00,,,0.00,Wunderground v.1.15,2013-06-18 07:14:00,
2013-06-18 03:15:00,78.2,75.0,30.02,SE,127,0.0,0.0,90,0.00,,,0.00,Wunderground v.1.15,2013-06-18 07:15:00,
2013-06-18 03:16:00,78.2,75.0,30.02,SE,127,0.0,0.0,90,0.00,,,0.00,Wunderground v.1.15,2013-06-18 07:16:00,
2013-06-18 03:19:00,78.1,75.3,30.02,SE,127,0.0,0.0,91,0.00,,,0.00,Wunderground v.1.15,2013-06-18 07:19:00,
2013-06-18 03:20:00,78.1,75.3,30.03,SE,127,0.0,0.0,91,0.00,,,0.00,Wunderground v.1.15,2013-06-18 07:20:00,
2013-06-18 03:21:00,78.0,75.2,30.03,SE,127,0.0,0.0,91,0.00,,,0.00,Wunderground v.1.15,2013-06-18 07:21:00,
2013-06-18 03:25:00,78.0,75.2,30.02,SE,127,0.0,0.0,91,0.00,,,0.00,Wunderground v.1.15,2013-06-18 07:25:00,
2013-06-18 03:27:00,78.0,75.2,30.02,SE,127,0.0,0.0,91,0.00,,,0.00,Wunderground v.1.15,2013-06-18 07:27:00,
2013-06-18 03:28:00,78.0,75.2,30.02,SE,127,0.0,0.0,91,0.00,,,0.00,Wunderground v.1.15,2013-06-18 07:28:00,
2013-06-18 03:31:00,77.9,75.1,30.02,SE,127,0.0,0.0,91,0.00,,,0.00,Wunderground v.1.15,2013-06-18 07:31:00,
2013-06-18 03:32:00,77.9,75.1,30.02,SE,127,0.0,0.0,91,0.00,,,0.00,Wunderground v.1.15,2013-06-18 07:32:00,
2013-06-18 03:34:00,77.8,75.0,30.02,SE,127,0.0,0.0,91,0.00,,,0.00,Wunderground v.1.15,2013-06-18 07:34:00,
2013-06-18 03:38:00,77.9,75.4,30.02,SE,127,0.0,0.0,92,0.00,,,0.00,Wunderground v.1.15,2013-06-18 07:38:00,
2013-06-18 03:40:00,77.9,75.4,30.02,SE,127,0.0,0.0,92,0.00,,,0.00,Wunderground v.1.15,2013-06-18 07:40:00,
2013-06-18 03:41:00,78.0,75.5,30.02,SE,127,0.0,0.0,92,0.00,,,0.00,Wunderground v.1.15,2013-06-18 07:41:00,
2013-06-18 03:45:00,78.1,75.6,30.02,SE,127,0.0,0.0,92,0.00,,,0.00,Wunderground v.1.15,2013-06-18 07:45:00,
2013-06-18 03:47:00,78.0,75.2,30.02,SE,127,0.0,0.0,91,0.00,,,0.00,Wunderground v.1.15,2013-06-18 07:47:00,
2013-06-18 03:48:00,77.9,75.1,30.01,SE,127,0.0,0.0,91,0.00,,,0.00,Wunderground v.1.15,2013-06-18 07:48:00,
2013-06-18 03:49:00,77.9,75.4,30.02,SE,127,0.0,0.0,92,0.00,,,0.00,Wunderground v.1.15,2013-06-18 07:49:00,
2013-06-18 03:53:00,77.8,75.3,30.02,SE,127,0.0,0.0,92,0.00,,,0.00,Wunderground v.1.15,2013-06-18 07:53:00,
2013-06-18 03:54:00,77.9,75.4,30.02,SE,127,0.0,0.0,92,0.00,,,0.00,Wunderground v.1.15,2013-06-18 07:54:00,
2013-06-18 03:55:00,77.9,75.4,30.02,SE,127,0.0,0.0,92,0.00,,,0.00,Wunderground v.1.15,2013-06-18 07:55:00,
2013-06-18 03:56:00,77.9,75.4,30.02,SE,127,0.0,0.0,92,0.00,,,0.00,Wunderground v.1.15,2013-06-18 07:56:00,
2013-06-18 04:00:00,77.9,75.4,30.01,SE,127,0.0,0.0,92,0.00,,,0.00,Wunderground v.1.15,2013-06-18 08:00:00,
2013-06-18 04:01:00,77.9,75.4,30.01,SE,127,0.0,0.0,92,0.00,,,0.00,Wunderground v.1.15,2013-06-18 08:01:00,
2013-06-18 04:03:00,77.9,75.4,30.01,SE,127,0.0,0.0,92,0.00,,,0.00,Wunderground v.1.15,2013-06-18 08:03:00,
2013-06-18 04:07:00,77.9,75.4,30.01,SE,127,0.0,0.0,92,0.00,,,0.00,Wunderground v.1.15,2013-06-18 08:07:00,
2013-06-18 04:08:00,77.9,75.4,30.01,SE,127,0.0,0.0,92,0.00,,,0.00,Wunderground v.1.15,2013-06-18 08:08:00,
2013-06-18 04:09:00,77.9,75.4,30.01,SE,127,0.0,0.0,92,0.00,,,0.00,Wunderground v.1.15,2013-06-18 08:09:00,
2013-06-18 04:12:00,77.9,75.4,30.01,SE,127,0.0,0.0,92,0.00,,,0.00,Wunderground v.1.15,2013-06-18 08:12:00,
2013-06-18 04:13:00,77.9,75.7,30.01,SE,127,0.0,0.0,93,0.00,,,0.00,Wunderground v.1.15,2013-06-18 08:13:00,
2013-06-18 04:15:00,77.9,75.7,30.01,SE,127,0.0,0.0,93,0.00,,,0.00,Wunderground v.1.15,2013-06-18 08:15:00,
2013-06-18 04:16:00,78.0,75.8,30.01,SE,127,0.0,0.0,93,0.00,,,0.00,Wunderground v.1.15,2013-06-18 08:16:00,
2013-06-18 04:20:00,78.0,75.8,30.01,SE,127,0.0,0.0,93,0.00,,,0.00,Wunderground v.1.15,2013-06-18 08:20:00,
2013-06-18 04:21:00,78.0,75.8,30.01,SE,127,0.0,0.0,93,0.00,,,0.00,Wunderground v.1.15,2013-06-18 08:21:00,
2013-06-18 04:23:00,77.9,75.7,30.01,SE,127,0.0,0.0,93,0.00,,,0.00,Wunderground v.1.15,2013-06-18 08:23:00,
2013-06-18 04:25:00,77.9,75.4,30.01,SE,127,0.0,0.0,92,0.00,,,0.00,Wunderground v.1.15,2013-06-18 08:25:00,
2013-06-18 04:27:00,77.8,75.6,30.01,SE,127,0.0,0.0,93,0.00,,,0.00,Wunderground v.1.15,2013-06-18 08:27:00,
2013-06-18 04:28:00,77.8,75.6,30.01,SE,127,0.0,0.0,93,0.00,,,0.00,Wunderground v.1.15,2013-06-18 08:28:00,
2013-06-18 04:29:00,77.8,75.6,30.01,SE,127,0.0,0.0,93,0.00,,,0.00,Wunderground v.1.15,2013-06-18 08:29:00,
2013-06-18 04:31:00,77.8,75.6,30.01,SE,127,0.0,0.0,93,0.00,,,0.00,Wunderground v.1.15,2013-06-18 08:31:00,
2013-06-18 04:34:00,77.9,75.7,30.01,SE,127,0.0,0.0,93,0.00,,,0.00,Wunderground v.1.15,2013-06-18 08:34:00,
2013-06-18 04:36:00,77.9,75.7,30.01,SE,127,0.0,0.0,93,0.00,,,0.00,Wunderground v.1.15,2013-06-18 08:36:00,
2013-06-18 04:41:00,77.9,75.7,30.01,SE,127,0.0,0.0,93,0.00,,,0.00,Wunderground v.1.15,2013-06-18 08:41:00,
2013-06-18 04:42:00,77.9,75.7,30.01,SE,127,0.0,0.0,93,0.00,,,0.00,Wunderground v.1.15,2013-06-18 08:42:00,
2013-06-18 04:43:00,77.8,75.6,30.01,SE,127,0.0,0.0,93,0.00,,,0.00,Wunderground v.1.15,2013-06-18 08:43:00,
2013-06-18 04:46:00,77.8,75.6,30.01,SE,127,0.0,0.0,93,0.00,,,0.00,Wunderground v.1.15,2013-06-18 08:46:00,
2013-06-18 04:48:00,77.7,75.5,30.01,SE,127,0.0,0.0,93,0.00,,,0.00,Wunderground v.1.15,2013-06-18 08:48:00,
2013-06-18 04:49:00,77.7,75.5,30.01,SE,127,0.0,0.0,93,0.00,,,0.00,Wunderground v.1.15,2013-06-18 08:49:00,
2013-06-18 04:54:00,77.6,75.4,30.01,SE,127,0.0,0.0,93,0.00,,,0.00,Wunderground v.1.15,2013-06-18 08:54:00,
2013-06-18 04:55:00,77.6,75.4,30.01,SE,127,0.0,0.0,93,0.00,,,0.00,Wunderground v.1.15,2013-06-18 08:55:00,
2013-06-18 04:56:00,77.5,75.3,30.01,SE,127,0.0,0.0,93,0.00,,,0.00,Wunderground v.1.15,2013-06-18 08:56:00,
2013-06-18 04:57:00,77.5,75.3,30.01,SE,127,0.0,0.0,93,0.00,,,0.00,Wunderground v.1.15,2013-06-18 08:57:00,
2013-06-18 05:00:00,77.4,75.2,30.01,SE,127,0.0,0.0,93,0.00,,,0.00,Wunderground v.1.15,2013-06-18 09:00:00,
2013-06-18 05:01:00,77.3,75.1,30.01,SE,127,0.0,0.0,93,0.00,,,0.00,Wunderground v.1.15,2013-06-18 09:01:00,
2013-06-18 05:02:00,77.3,75.1,30.01,SE,127,0.0,0.0,93,0.00,,,0.00,Wunderground v.1.15,2013-06-18 09:02:00,
2013-06-18 05:03:00,77.3,75.1,30.01,SE,127,0.0,0.0,93,0.00,,,0.00,Wunderground v.1.15,2013-06-18 09:03:00,
2013-06-18 05:06:00,77.4,75.5,30.00,SE,127,0.0,0.0,94,0.00,,,0.00,Wunderground v.1.15,2013-06-18 09:06:00,
2013-06-18 05:08:00,77.4,75.5,30.00,SE,127,0.0,0.0,94,0.00,,,0.00,Wunderground v.1.15,2013-06-18 09:08:00,
2013-06-18 05:10:00,77.5,75.3,30.00,SE,127,0.0,0.0,93,0.00,,,0.00,Wunderground v.1.15,2013-06-18 09:10:00,
2013-06-18 05:12:00,77.4,75.2,30.01,SE,127,0.0,0.0,93,0.00,,,0.00,Wunderground v.1.15,2013-06-18 09:12:00,
2013-06-18 05:14:00,77.4,75.2,30.01,SE,127,0.0,0.0,93,0.00,,,0.00,Wunderground v.1.15,2013-06-18 09:14:00,
2013-06-18 05:15:00,77.4,75.2,30.00,SE,127,0.0,0.0,93,0.00,,,0.00,Wunderground v.1.15,2013-06-18 09:15:00,
2013-06-18 05:18:00,77.3,75.1,30.01,SE,127,0.0,0.0,93,0.00,,,0.00,Wunderground v.1.15,2013-06-18 09:18:00,
2013-06-18 05:19:00,77.3,75.1,30.01,SE,127,0.0,0.0,93,0.00,,,0.00,Wunderground v.1.15,2013-06-18 09:19:00,
2013-06-18 05:22:00,77.3,75.4,30.01,SE,127,0.0,0.0,94,0.00,,,0.00,Wunderground v.1.15,2013-06-18 09:22:00,
2013-06-18 05:24:00,77.3,75.1,30.01,SE,127,0.0,0.0,93,0.00,,,0.00,Wunderground v.1.15,2013-06-18 09:24:00,
2013-06-18 05:25:00,77.3,75.4,30.01,SE,127,0.0,0.0,94,0.00,,,0.00,Wunderground v.1.15,2013-06-18 09:25:00,
2013-06-18 05:27:00,77.3,75.4,30.01,SE,127,0.0,0.0,94,0.00,,,0.00,Wunderground v.1.15,2013-06-18 09:27:00,
2013-06-18 05:28:00,77.3,75.4,30.01,SE,127,0.0,0.0,94,0.00,,,0.00,Wunderground v.1.15,2013-06-18 09:28:00,
2013-06-18 05:29:00,77.3,75.4,30.00,SE,127,0.0,0.0,94,0.00,,,0.00,Wunderground v.1.15,2013-06-18 09:29:00,
2013-06-18 05:31:00,77.3,75.4,30.00,SE,127,0.0,1.0,94,0.00,,,0.00,Wunderground v.1.15,2013-06-18 09:31:00,
2013-06-18 05:33:00,77.4,75.5,30.01,SE,127,0.0,1.0,94,0.00,,,0.00,Wunderground v.1.15,2013-06-18 09:33:00,
2013-06-18 05:34:00,77.5,75.6,30.01,SE,127,0.0,1.0,94,0.00,,,0.00,Wunderground v.1.15,2013-06-18 09:34:00,
2013-06-18 05:35:00,77.5,75.6,30.01,SE,127,0.0,1.0,94,0.00,,,0.00,Wunderground v.1.15,2013-06-18 09:35:00,
2013-06-18 05:36:00,77.5,75.6,30.01,SE,127,0.0,1.0,94,0.00,,,0.00,Wunderground v.1.15,2013-06-18 09:36:00,
2013-06-18 05:39:00,77.4,75.5,30.01,SE,127,0.0,1.0,94,0.00,,,0.00,Wunderground v.1.15,2013-06-18 09:39:00,
2013-06-18 05:41:00,77.5,75.6,30.01,SE,127,0.0,1.0,94,0.00,,,0.00,Wunderground v.1.15,2013-06-18 09:41:00,
2013-06-18 05:42:00,77.5,75.6,30.01,SE,127,0.0,1.0,94,0.00,,,0.00,Wunderground v.1.15,2013-06-18 09:42:00,
2013-06-18 05:43:00,77.5,75.6,30.01,SE,127,0.0,1.0,94,0.00,,,0.00,Wunderground v.1.15,2013-06-18 09:43:00,
2013-06-18 05:48:00,77.5,75.6,30.01,SE,127,0.0,1.0,94,0.00,,,0.00,Wunderground v.1.15,2013-06-18 09:48:00,
2013-06-18 05:49:00,77.5,75.6,30.01,SE,127,0.0,1.0,94,0.00,,,0.00,Wunderground v.1.15,2013-06-18 09:49:00,
2013-06-18 05:51:00,77.4,75.5,30.01,SE,127,0.0,1.0,94,0.00,,,0.00,Wunderground v.1.15,2013-06-18 09:51:00,
2013-06-18 05:52:00,77.4,75.5,30.01,SE,127,0.0,1.0,94,0.00,,,0.00,Wunderground v.1.15,2013-06-18 09:52:00,
2013-06-18 05:54:00,77.4,75.5,30.01,SE,127,0.0,1.0,94,0.00,,,0.00,Wunderground v.1.15,2013-06-18 09:54:00,
2013-06-18 05:57:00,77.4,75.2,30.01,SE,127,0.0,1.0,93,0.00,,,0.00,Wunderground v.1.15,2013-06-18 09:57:00,
2013-06-18 05:58:00,77.4,75.2,30.01,SE,127,0.0,1.0,93,0.00,,,0.00,Wunderground v.1.15,2013-06-18 09:58:00,
2013-06-18 05:59:00,77.4,75.5,30.01,SE,127,0.0,1.0,94,0.00,,,0.00,Wunderground v.1.15,2013-06-18 09:59:00,
2013-06-18 06:02:00,77.4,75.5,30.01,SE,127,0.0,0.0,94,0.00,,,0.00,Wunderground v.1.15,2013-06-18 10:02:00,
2013-06-18 06:03:00,77.4,75.5,30.01,SE,127,0.0,0.0,94,0.00,,,0.00,Wunderground v.1.15,2013-06-18 10:03:00,
2013-06-18 06:06:00,77.4,75.5,30.01,SE,127,0.0,0.0,94,0.00,,,0.00,Wunderground v.1.15,2013-06-18 10:06:00,
2013-06-18 06:07:00,77.4,75.2,30.01,SE,127,0.0,0.0,93,0.00,,,0.00,Wunderground v.1.15,2013-06-18 10:07:00,
2013-06-18 06:08:00,77.4,75.2,30.01,SE,127,0.0,0.0,93,0.00,,,0.00,Wunderground v.1.15,2013-06-18 10:08:00,
2013-06-18 06:10:00,77.3,75.1,30.01,SE,127,0.0,0.0,93,0.00,,,0.00,Wunderground v.1.15,2013-06-18 10:10:00,
2013-06-18 06:11:00,77.3,75.1,30.01,SE,127,0.0,0.0,93,0.00,,,0.00,Wunderground v.1.15,2013-06-18 10:11:00,
2013-06-18 06:15:00,77.2,75.3,30.01,SE,127,0.0,0.0,94,0.00,,,0.00,Wunderground v.1.15,2013-06-18 10:15:00,
2013-06-18 06:16:00,77.2,75.0,30.01,SE,127,0.0,0.0,93,0.00,,,0.00,Wunderground v.1.15,2013-06-18 10:16:00,
2013-06-18 06:17:00,77.3,75.1,30.01,SE,127,0.0,0.0,93,0.00,,,0.00,Wunderground v.1.15,2013-06-18 10:17:00,
2013-06-18 06:18:00,77.2,75.0,30.00,SE,127,0.0,0.0,93,0.00,,,0.00,Wunderground v.1.15,2013-06-18 10:18:00,
2013-06-18 06:20:00,77.3,75.4,30.00,SE,127,0.0,0.0,94,0.00,,,0.00,Wunderground v.1.15,2013-06-18 10:20:00,
2013-06-18 06:22:00,77.3,75.4,30.00,SE,127,0.0,0.0,94,0.00,,,0.00,Wunderground v.1.15,2013-06-18 10:22:00,
2013-06-18 06:23:00,77.3,75.1,30.00,SE,127,0.0,0.0,93,0.00,,,0.00,Wunderground v.1.15,2013-06-18 10:23:00,
2013-06-18 06:25:00,77.4,75.2,30.00,SE,127,0.0,0.0,93,0.00,,,0.00,Wunderground v.1.15,2013-06-18 10:25:00,
2013-06-18 06:26:00,77.4,75.2,30.00,SE,127,0.0,0.0,93,0.00,,,0.00,Wunderground v.1.15,2013-06-18 10:26:00,
2013-06-18 06:28:00,77.4,75.2,30.00,SE,127,0.0,0.0,93,0.00,,,0.00,Wunderground v.1.15,2013-06-18 10:28:00,
2013-06-18 06:30:00,77.5,75.3,30.00,SE,127,0.0,0.0,93,0.00,,,0.00,Wunderground v.1.15,2013-06-18 10:30:00,
2013-06-18 06:33:00,77.6,75.4,30.00,SE,127,0.0,0.0,93,0.00,,,0.00,Wunderground v.1.15,2013-06-18 10:33:00,
2013-06-18 06:34:00,77.6,75.4,30.00,SE,127,0.0,0.0,93,0.00,,,0.00,Wunderground v.1.15,2013-06-18 10:34:00,
2013-06-18 06:35:00,77.6,75.1,30.00,SE,127,0.0,0.0,92,0.00,,,0.00,Wunderground v.1.15,2013-06-18 10:35:00,
2013-06-18 06:36:00,77.7,75.2,30.00,SE,127,0.0,0.0,92,0.00,,,0.00,Wunderground v.1.15,2013-06-18 10:36:00,
2013-06-18 06:38:00,77.7,75.2,30.01,SE,127,0.0,0.0,92,0.00,,,0.00,Wunderground v.1.15,2013-06-18 10:38:00,
2013-06-18 06:39:00,77.7,75.2,30.00,SE,127,0.0,0.0,92,0.00,,,0.00,Wunderground v.1.15,2013-06-18 10:39:00,
2013-06-18 06:42:00,77.8,75.3,30.00,SE,127,0.0,0.0,92,0.00,,,0.00,Wunderground v.1.15,2013-06-18 10:42:00,
2013-06-18 06:43:00,77.8,75.3,30.00,SE,127,0.0,0.0,92,0.00,,,0.00,Wunderground v.1.15,2013-06-18 10:43:00,
2013-06-18 06:46:00,77.9,75.4,30.00,SE,127,0.0,0.0,92,0.00,,,0.00,Wunderground v.1.15,2013-06-18 10:46:00,
2013-06-18 06:47:00,77.9,75.4,30.00,SE,127,0.0,0.0,92,0.00,,,0.00,Wunderground v.1.15,2013-06-18 10:47:00,
2013-06-18 06:49:00,77.9,75.4,30.00,SE,127,0.0,0.0,92,0.00,,,0.00,Wunderground v.1.15,2013-06-18 10:49:00,
2013-06-18 06:50:00,78.0,75.5,30.01,SE,127,0.0,0.0,92,0.00,,,0.00,Wunderground v.1.15,2013-06-18 10:50:00,
2013-06-18 06:54:00,78.2,75.7,30.01,SE,127,0.0,0.0,92,0.00,,,0.00,Wunderground v.1.15,2013-06-18 10:54:00,
2013-06-18 06:55:00,78.4,75.9,30.01,SE,127,0.0,0.0,92,0.00,,,0.00,Wunderground v.1.15,2013-06-18 10:55:00,
2013-06-18 06:57:00,78.6,75.8,30.01,SE,127,0.0,0.0,91,0.00,,,0.00,Wunderground v.1.15,2013-06-18 10:57:00,
2013-06-18 07:00:00,79.0,76.1,30.01,SE,127,0.0,0.0,91,0.00,,,0.00,Wunderground v.1.15,2013-06-18 11:00:00,
2013-06-18 07:01:00,79.2,76.0,30.01,SE,127,0.0,0.0,90,0.00,,,0.00,Wunderground v.1.15,2013-06-18 11:01:00,
2013-06-18 07:03:00,79.4,76.2,30.01,SE,127,0.0,0.0,90,0.00,,,0.00,Wunderground v.1.15,2013-06-18 11:03:00,
2013-06-18 07:04:00,79.6,76.4,30.01,SE,127,0.0,0.0,90,0.00,,,0.00,Wunderground v.1.15,2013-06-18 11:04:00,
2013-06-18 07:06:00,79.9,76.0,30.01,SE,127,0.0,0.0,88,0.00,,,0.00,Wunderground v.1.15,2013-06-18 11:06:00,
2013-06-18 07:09:00,80.3,76.4,30.01,SE,127,0.0,0.0,88,0.00,,,0.00,Wunderground v.1.15,2013-06-18 11:09:00,
2013-06-18 07:11:00,80.5,76.3,30.01,SE,134,0.0,0.0,87,0.00,,,0.00,Wunderground v.1.15,2013-06-18 11:11:00,
2013-06-18 07:12:00,80.5,76.3,30.01,SE,134,0.0,0.0,87,0.00,,,0.00,Wunderground v.1.15,2013-06-18 11:12:00,
2013-06-18 07:14:00,80.7,76.5,30.01,SE,134,0.0,1.0,87,0.00,,,0.00,Wunderground v.1.15,2013-06-18 11:14:00,
2013-06-18 07:15:00,80.8,76.6,30.01,ESE,116,0.0,1.0,87,0.00,,,0.00,Wunderground v.1.15,2013-06-18 11:15:00,
2013-06-18 07:16:00,80.8,76.2,30.01,SE,136,0.0,1.0,86,0.00,,,0.00,Wunderground v.1.15,2013-06-18 11:16:00,
2013-06-18 07:20:00,81.1,76.2,30.02,ESE,123,0.0,0.0,85,0.00,,,0.00,Wunderground v.1.15,2013-06-18 11:20:00,
2013-06-18 07:21:00,81.2,76.3,30.02,SE,132,0.0,1.0,85,0.00,,,0.00,Wunderground v.1.15,2013-06-18 11:21:00,
2013-06-18 07:24:00,81.4,76.5,30.02,SSE,149,0.0,1.0,85,0.00,,,0.00,Wunderground v.1.15,2013-06-18 11:24:00,
2013-06-18 07:26:00,81.6,76.6,30.02,ESE,117,0.0,1.0,85,0.00,,,0.00,Wunderground v.1.15,2013-06-18 11:26:00,
2013-06-18 07:28:00,81.7,76.4,30.02,SE,142,0.0,1.0,84,0.00,,,0.00,Wunderground v.1.15,2013-06-18 11:28:00,
2013-06-18 07:30:00,81.8,76.5,30.02,SSE,160,0.0,0.0,84,0.00,,,0.00,Wunderground v.1.15,2013-06-18 11:30:00,
2013-06-18 07:31:00,81.9,76.6,30.02,SSE,152,0.0,1.0,84,0.00,,,0.00,Wunderground v.1.15,2013-06-18 11:31:00,
2013-06-18 07:33:00,82.1,76.8,30.02,SSE,148,0.0,1.0,84,0.00,,,0.00,Wunderground v.1.15,2013-06-18 11:33:00,
2013-06-18 07:35:00,82.4,77.1,30.02,ESE,117,0.0,1.0,84,0.00,,,0.00,Wunderground v.1.15,2013-06-18 11:35:00,
2013-06-18 07:36:00,82.6,76.9,30.02,ESE,118,0.0,1.0,83,0.00,,,0.00,Wunderground v.1.15,2013-06-18 11:36:00,
2013-06-18 07:38:00,82.8,77.1,30.02,SE,138,0.0,1.0,83,0.00,,,0.00,Wunderground v.1.15,2013-06-18 11:38:00,
2013-06-18 07:39:00,82.9,76.8,30.02,SSE,152,0.0,1.0,82,0.00,,,0.00,Wunderground v.1.15,2013-06-18 11:39:00,
2013-06-18 07:41:00,83.1,77.0,30.02,SSE,162,1.0,1.0,82,0.00,,,0.00,Wunderground v.1.15,2013-06-18 11:41:00,
2013-06-18 07:45:00,83.4,77.0,30.02,SE,136,1.0,2.0,81,0.00,,,0.00,Wunderground v.1.15,2013-06-18 11:45:00,
2013-06-18 07:46:00,83.5,77.1,30.02,SE,124,1.0,2.0,81,0.00,,,0.00,Wunderground v.1.15,2013-06-18 11:46:00,
2013-06-18 07:47:00,83.5,77.1,30.02,SE,125,1.0,2.0,81,0.00,,,0.00,Wunderground v.1.15,2013-06-18 11:47:00,
2013-06-18 07:49:00,83.6,76.8,30.02,SSE,151,1.0,2.0,80,0.00,,,0.00,Wunderground v.1.15,2013-06-18 11:49:00,
2013-06-18 07:55:00,83.4,77.0,30.02,SSE,153,2.0,5.0,81,0.00,,,0.00,Wunderground v.1.15,2013-06-18 11:55:00,
2013-06-18 07:56:00,83.3,76.9,30.02,SE,130,2.0,5.0,81,0.00,,,0.00,Wunderground v.1.15,2013-06-18 11:56:00,
2013-06-18 07:58:00,83.2,76.8,30.02,SE,143,2.0,5.0,81,0.00,,,0.00,Wunderground v.1.15,2013-06-18 11:58:00,
2013-06-18 08:00:00,83.1,76.7,30.02,SE,124,2.0,2.0,81,0.00,,,0.00,Wunderground v.1.15,2013-06-18 12:00:00,
2013-06-18 08:01:00,83.0,76.6,30.02,SE,143,2.0,2.0,81,0.00,,,0.00,Wunderground v.1.15,2013-06-18 12:01:00,
2013-06-18 08:03:00,83.0,76.6,30.02,ESE,109,1.0,2.0,81,0.00,,,0.00,Wunderground v.1.15,2013-06-18 12:03:00,
2013-06-18 08:04:00,83.1,76.7,30.03,ESE,119,1.0,2.0,81,0.00,,,0.00,Wunderground v.1.15,2013-06-18 12:04:00,
2013-06-18 08:06:00,83.1,76.7,30.03,ESE,117,1.0,2.0,81,0.00,,,0.00,Wunderground v.1.15,2013-06-18 12:06:00,
2013-06-18 08:08:00,83.0,76.2,30.03,SE,138,1.0,2.0,80,0.00,,,0.00,Wunderground v.1.15,2013-06-18 12:08:00,
2013-06-18 08:09:00,82.9,76.1,30.03,SE,129,1.0,2.0,80,0.00,,,0.00,Wunderground v.1.15,2013-06-18 12:09:00,
2013-06-18 08:14:00,83.2,76.4,30.03,ESE,115,2.0,3.0,80,0.00,,,0.00,Wunderground v.1.15,2013-06-18 12:14:00,
2013-06-18 08:15:00,83.2,76.0,30.03,ESE,120,2.0,3.0,79,0.00,,,0.00,Wunderground v.1.15,2013-06-18 12:15:00,
2013-06-18 08:16:00,83.3,76.1,30.03,ESE,119,2.0,3.0,79,0.00,,,0.00,Wunderground v.1.15,2013-06-18 12:16:00,
2013-06-18 08:21:00,83.5,75.9,30.04,ESE,120,3.0,3.0,78,0.00,,,0.00,Wunderground v.1.15,2013-06-18 12:21:00,
2013-06-18 08:22:00,83.5,75.9,30.04,ESE,121,3.0,5.0,78,0.00,,,0.00,Wunderground v.1.15,2013-06-18 12:22:00,
2013-06-18 08:23:00,83.6,76.0,30.04,SE,131,3.0,5.0,78,0.00,,,0.00,Wunderground v.1.15,2013-06-18 12:23:00,
2013-06-18 08:24:00,83.7,76.1,30.04,SSE,166,3.0,5.0,78,0.00,,,0.00,Wunderground v.1.15,2013-06-18 12:24:00,
2013-06-18 08:29:00,84.3,76.3,30.04,ESE,117,3.0,5.0,77,0.00,,,0.00,Wunderground v.1.15,2013-06-18 12:29:00,
2013-06-18 08:30:00,84.4,76.0,30.04,SE,129,3.0,3.0,76,0.00,,,0.00,Wunderground v.1.15,2013-06-18 12:30:00,
2013-06-18 08:32:00,84.5,75.7,30.04,SSE,147,2.0,3.0,75,0.00,,,0.00,Wunderground v.1.15,2013-06-18 12:32:00,
2013-06-18 08:34:00,84.6,75.8,30.04,East,91,2.0,3.0,75,0.00,,,0.00,Wunderground v.1.15,2013-06-18 12:34:00,
2013-06-18 08:37:00,84.9,76.1,30.04,SSE,148,2.0,4.0,75,0.00,,,0.00,Wunderground v.1.15,2013-06-18 12:37:00,
2013-06-18 08:38:00,85.0,76.2,30.04,SSE,148,2.0,4.0,75,0.00,,,0.00,Wunderground v.1.15,2013-06-18 12:38:00,
2013-06-18 08:39:00,85.1,76.3,30.05,ENE,60,2.0,4.0,75,0.00,,,0.00,Wunderground v.1.15,2013-06-18 12:39:00,
2013-06-18 08:43:00,85.5,75.9,30.05,ESE,122,2.0,3.0,73,0.00,,,0.00,Wunderground v.1.15,2013-06-18 12:43:00,
2013-06-18 08:44:00,85.5,75.9,30.05,ENE,78,2.0,3.0,73,0.00,,,0.00,Wunderground v.1.15,2013-06-18 12:44:00,
2013-06-18 08:46:00,85.7,75.6,30.05,SSE,167,2.0,5.0,72,0.00,,,0.00,Wunderground v.1.15,2013-06-18 12:46:00,
2013-06-18 08:47:00,85.7,75.2,30.05,SSE,148,2.0,5.0,71,0.00,,,0.00,Wunderground v.1.15,2013-06-18 12:47:00,
2013-06-18 08:51:00,85.5,75.4,30.05,SSE,148,3.0,3.0,72,0.00,,,0.00,Wunderground v.1.15,2013-06-18 12:51:00,
2013-06-18 08:52:00,85.5,75.4,30.05,ESE,120,3.0,3.0,72,0.00,,,0.00,Wunderground v.1.15,2013-06-18 12:52:00,
2013-06-18 08:53:00,85.6,75.5,30.05,SE,144,3.0,3.0,72,0.00,,,0.00,Wunderground v.1.15,2013-06-18 12:53:00,
2013-06-18 08:54:00,85.7,75.6,30.05,East,98,3.0,3.0,72,0.00,,,0.00,Wunderground v.1.15,2013-06-18 12:54:00,
2013-06-18 08:55:00,85.7,75.6,30.05,SE,136,3.0,4.0,72,0.00,,,0.00,Wunderground v.1.15,2013-06-18 12:55:00,
2013-06-18 08:57:00,85.7,75.2,30.04,East,88,3.0,4.0,71,0.00,,,0.00,Wunderground v.1.15,2013-06-18 12:57:00,
2013-06-18 09:00:00,85.9,75.4,30.04,SSE,150,3.0,3.0,71,0.00,,,0.00,Wunderground v.1.15,2013-06-18 13:00:00,
2013-06-18 09:03:00,86.2,75.7,30.04,SE,129,3.0,3.0,71,0.00,,,0.00,Wunderground v.1.15,2013-06-18 13:03:00,
2013-06-18 09:05:00,86.3,75.8,30.05,SE,131,3.0,4.0,71,0.00,,,0.00,Wunderground v.1.15,2013-06-18 13:05:00,
2013-06-18 09:07:00,86.4,75.9,30.04,East,97,2.0,4.0,71,0.00,,,0.00,Wunderground v.1.15,2013-06-18 13:07:00,
2013-06-18 09:08:00,86.5,76.0,30.04,SSE,156,2.0,4.0,71,0.00,,,0.00,Wunderground v.1.15,2013-06-18 13:08:00,
2013-06-18 09:09:00,86.6,76.1,30.04,SE,134,2.0,4.0,71,0.00,,,0.00,Wunderground v.1.15,2013-06-18 13:09:00,
2013-06-18 09:10:00,86.7,76.2,30.04,ESE,112,2.0,2.0,71,0.00,,,0.00,Wunderground v.1.15,2013-06-18 13:10:00,
2013-06-18 09:12:00,86.9,75.9,30.04,East,92,2.0,2.0,70,0.00,,,0.00,Wunderground v.1.15,2013-06-18 13:12:00,
2013-06-18 09:13:00,87.0,76.0,30.04,ENE,62,2.0,3.0,70,0.00,,,0.00,Wunderground v.1.15,2013-06-18 13:13:00,
2013-06-18 09:15:00,87.0,75.6,30.05,SE,143,2.0,3.0,69,0.00,,,0.00,Wunderground v.1.15,2013-06-18 13:15:00,
2013-06-18 09:18:00,86.8,74.1,30.05,SE,146,3.0,5.0,66,0.00,,,0.00,Wunderground v.1.15,2013-06-18 13:18:00,
2013-06-18 09:20:00,86.9,74.6,30.05,East,82,3.0,4.0,67,0.00,,,0.00,Wunderground v.1.15,2013-06-18 13:20:00,
2013-06-18 09:22:00,87.0,73.8,30.05,SE,129,3.0,5.0,65,0.00,,,0.00,Wunderground v.1.15,2013-06-18 13:22:00,
2013-06-18 09:23:00,87.0,74.3,30.05,East,94,3.0,5.0,66,0.00,,,0.00,Wunderground v.1.15,2013-06-18 13:23:00,
2013-06-18 09:24:00,87.0,74.3,30.05,SE,133,3.0,5.0,66,0.00,,,0.00,Wunderground v.1.15,2013-06-18 13:24:00,
2013-06-18 09:26:00,87.2,74.9,30.05,SSE,148,3.0,5.0,67,0.00,,,0.00,Wunderground v.1.15,2013-06-18 13:26:00,
2013-06-18 09:27:00,87.3,75.0,30.05,SE,142,3.0,5.0,67,0.00,,,0.00,Wunderground v.1.15,2013-06-18 13:27:00,
2013-06-18 09:28:00,87.4,75.1,30.05,SE,142,2.0,6.0,67,0.00,,,0.00,Wunderground v.1.15,2013-06-18 13:28:00,
2013-06-18 09:32:00,87.6,75.3,30.05,SSE,164,2.0,6.0,67,0.00,,,0.00,Wunderground v.1.15,2013-06-18 13:32:00,
2013-06-18 09:33:00,87.6,74.8,30.05,ESE,122,2.0,6.0,66,0.00,,,0.00,Wunderground v.1.15,2013-06-18 13:33:00,
2013-06-18 09:34:00,87.6,75.3,30.05,ESE,115,2.0,6.0,67,0.00,,,0.00,Wunderground v.1.15,2013-06-18 13:34:00,
2013-06-18 09:37:00,87.5,75.2,30.05,SSE,166,2.0,7.0,67,0.00,,,0.00,Wunderground v.1.15,2013-06-18 13:37:00,
2013-06-18 09:38:00,87.4,75.1,30.05,SE,128,2.0,7.0,67,0.00,,,0.00,Wunderground v.1.15,2013-06-18 13:38:00,
2013-06-18 09:39:00,87.3,75.0,30.05,SE,133,2.0,7.0,67,0.00,,,0.00,Wunderground v.1.15,2013-06-18 13:39:00,
2013-06-18 09:40:00,87.2,75.3,30.05,SE,124,3.0,3.0,68,0.00,,,0.00,Wunderground v.1.15,2013-06-18 13:40:00,
2013-06-18 09:41:00,87.1,75.3,30.05,SE,143,3.0,6.0,68,0.00,,,0.00,Wunderground v.1.15,2013-06-18 13:41:00,
2013-06-18 09:45:00,87.0,75.6,30.05,SSE,148,3.0,8.0,69,0.00,,,0.00,Wunderground v.1.15,2013-06-18 13:45:00,
2013-06-18 09:47:00,87.2,75.3,30.05,SSE,153,3.0,8.0,68,0.00,,,0.00,Wunderground v.1.15,2013-06-18 13:47:00,
2013-06-18 09:48:00,87.2,75.3,30.05,SSE,161,3.0,8.0,68,0.00,,,0.00,Wunderground v.1.15,2013-06-18 13:48:00,
2013-06-18 09:50:00,87.4,75.5,30.05,SE,129,3.0,3.0,68,0.00,,,0.00,Wunderground v.1.15,2013-06-18 13:50:00,
2013-06-18 09:53:00,87.7,75.4,30.05,SSE,149,2.0,6.0,67,0.00,,,0.00,Wunderground v.1.15,2013-06-18 13:53:00,
2013-06-18 09:55:00,88.0,75.2,30.05,East,90,2.0,6.0,66,0.00,,,0.00,Wunderground v.1.15,2013-06-18 13:55:00,
2013-06-18 09:57:00,88.2,74.9,30.05,South,175,2.0,6.0,65,0.00,,,0.00,Wunderground v.1.15,2013-06-18 13:57:00,
2013-06-18 09:58:00,88.3,75.5,30.05,SSE,160,2.0,6.0,66,0.00,,,0.00,Wunderground v.1.15,2013-06-18 13:58:00,
2013-06-18 09:59:00,88.5,75.7,30.05,South,172,2.0,6.0,66,0.00,,,0.00,Wunderground v.1.15,2013-06-18 13:59:00,
2013-06-18 10:00:00,88.5,74.3,30.05,ENE,58,2.0,2.0,63,0.00,,,0.00,Wunderground v.1.15,2013-06-18 14:00:00,
2013-06-18 10:03:00,88.5,74.3,30.05,ESE,112,2.0,6.0,63,0.00,,,0.00,Wunderground v.1.15,2013-06-18 14:03:00,
2013-06-18 10:04:00,88.4,74.2,30.05,SSE,155,2.0,6.0,63,0.00,,,0.00,Wunderground v.1.15,2013-06-18 14:04:00,
2013-06-18 10:05:00,88.3,74.1,30.05,SE,145,3.0,6.0,63,0.00,,,0.00,Wunderground v.1.15,2013-06-18 14:05:00,
2013-06-18 10:06:00,88.3,74.6,30.05,SSE,148,3.0,6.0,64,0.00,,,0.00,Wunderground v.1.15,2013-06-18 14:06:00,
2013-06-18 10:08:00,88.5,74.8,30.05,East,87,3.0,6.0,64,0.00,,,0.00,Wunderground v.1.15,2013-06-18 14:08:00,
2013-06-18 10:09:00,88.6,74.4,30.05,SSE,160,3.0,6.0,63,0.00,,,0.00,Wunderground v.1.15,2013-06-18 14:09:00,
2013-06-18 10:10:00,88.7,75.0,30.05,East,89,3.0,4.0,64,0.00,,,0.00,Wunderground v.1.15,2013-06-18 14:10:00,
2013-06-18 10:11:00,88.7,75.4,30.05,ENE,71,3.0,4.0,65,0.00,,,0.00,Wunderground v.1.15,2013-06-18 14:11:00,
2013-06-18 10:14:00,89.3,76.0,30.05,East,82,3.0,4.0,65,0.00,,,0.00,Wunderground v.1.15,2013-06-18 14:14:00,
2013-06-18 10:16:00,89.5,76.2,30.05,ESE,114,2.0,4.0,65,0.00,,,0.00,Wunderground v.1.15,2013-06-18 14:16:00,
2013-06-18 10:17:00,89.5,76.2,30.05,SSE,154,2.0,4.0,65,0.00,,,0.00,Wunderground v.1.15,2013-06-18 14:17:00,
2013-06-18 10:19:00,89.5,75.7,30.05,SSE,160,3.0,4.0,64,0.00,,,0.00,Wunderground v.1.15,2013-06-18 14:19:00,
2013-06-18 10:21:00,89.2,75.4,30.05,East,98,3.0,3.0,64,0.00,,,0.00,Wunderground v.1.15,2013-06-18 14:21:00,
2013-06-18 10:22:00,89.2,75.9,30.05,SE,129,3.0,3.0,65,0.00,,,0.00,Wunderground v.1.15,2013-06-18 14:22:00,
2013-06-18 10:23:00,89.2,75.4,30.05,SSE,149,3.0,3.0,64,0.00,,,0.00,Wunderground v.1.15,2013-06-18 14:23:00,
2013-06-18 10:24:00,89.3,76.0,30.05,ESE,108,3.0,3.0,65,0.00,,,0.00,Wunderground v.1.15,2013-06-18 14:24:00,
2013-06-18 10:29:00,89.6,74.4,30.05,South,182,2.0,4.0,61,0.00,,,0.00,Wunderground v.1.15,2013-06-18 14:29:00,
2013-06-18 10:30:00,89.6,74.4,30.05,SE,131,2.0,3.0,61,0.00,,,0.00,Wunderground v.1.15,2013-06-18 14:30:00,
2013-06-18 10:33:00,89.6,73.9,30.05,NE,56,3.0,7.0,60,0.00,,,0.00,Wunderground v.1.15,2013-06-18 14:33:00,
2013-06-18 10:36:00,89.5,74.3,30.05,ESE,110,2.0,7.0,61,0.00,,,0.00,Wunderground v.1.15,2013-06-18 14:36:00,
2013-06-18 10:38:00,89.6,74.4,30.05,SE,133,2.0,7.0,61,0.00,,,0.00,Wunderground v.1.15,2013-06-18 14:38:00,
2013-06-18 10:42:00,89.5,73.8,30.05,SE,141,2.0,7.0,60,0.00,,,0.00,Wunderground v.1.15,2013-06-18 14:42:00,
2013-06-18 10:43:00,89.5,73.8,30.05,SE,126,2.0,7.0,60,0.00,,,0.00,Wunderground v.1.15,2013-06-18 14:43:00,
2013-06-18 10:44:00,89.6,73.9,30.05,SE,133,2.0,7.0,60,0.00,,,0.00,Wunderground v.1.15,2013-06-18 14:44:00,
2013-06-18 10:45:00,89.6,73.9,30.05,ESE,110,2.0,7.0,60,0.00,,,0.00,Wunderground v.1.15,2013-06-18 14:45:00,
2013-06-18 10:50:00,89.9,74.2,30.05,SSE,161,2.0,7.0,60,0.00,,,0.00,Wunderground v.1.15,2013-06-18 14:50:00,
2013-06-18 10:51:00,90.0,74.2,30.05,ENE,70,2.0,7.0,60,0.00,,,0.00,Wunderground v.1.15,2013-06-18 14:51:00,
2013-06-18 10:52:00,90.1,74.3,30.05,NE,48,2.0,7.0,60,0.00,,,0.00,Wunderground v.1.15,2013-06-18 14:52:00,
2013-06-18 10:55:00,90.4,74.1,30.05,East,97,2.0,7.0,59,0.00,,,0.00,Wunderground v.1.15,2013-06-18 14:55:00,
2013-06-18 10:58:00,90.6,74.3,30.05,ESE,116,2.0,7.0,59,0.00,,,0.00,Wunderground v.1.15,2013-06-18 14:58:00,
2013-06-18 10:59:00,90.6,74.3,30.05,SSE,168,2.0,7.0,59,0.00,,,0.00,Wunderground v.1.15,2013-06-18 14:59:00,
2013-06-18 11:01:00,90.9,75.1,30.05,SE,139,2.0,3.0,60,0.00,,,0.00,Wunderground v.1.15,2013-06-18 15:01:00,
2013-06-18 11:02:00,91.0,74.7,30.05,ENE,61,2.0,6.0,59,0.00,,,0.00,Wunderground v.1.15,2013-06-18 15:02:00,
2013-06-18 11:04:00,91.0,75.2,30.05,SSE,162,2.0,6.0,60,0.00,,,0.00,Wunderground v.1.15,2013-06-18 15:04:00,
2013-06-18 11:05:00,91.0,74.2,30.05,ESE,113,2.0,6.0,58,0.00,,,0.00,Wunderground v.1.15,2013-06-18 15:05:00,
2013-06-18 11:08:00,90.9,75.1,30.05,East,82,3.0,6.0,60,0.00,,,0.00,Wunderground v.1.15,2013-06-18 15:08:00,
2013-06-18 11:10:00,90.8,74.5,30.05,ESE,117,4.0,4.0,59,0.00,,,0.00,Wunderground v.1.15,2013-06-18 15:10:00,
2013-06-18 11:11:00,90.7,74.4,30.05,SE,132,4.0,4.0,59,0.00,,,0.00,Wunderground v.1.15,2013-06-18 15:11:00,
2013-06-18 11:13:00,90.4,74.6,30.05,ESE,118,4.0,5.0,60,0.00,,,0.00,Wunderground v.1.15,2013-06-18 15:13:00,
2013-06-18 11:16:00,90.3,74.5,30.05,SE,127,5.0,7.0,60,0.00,,,0.00,Wunderground v.1.15,2013-06-18 15:16:00,
2013-06-18 11:17:00,90.3,74.0,30.05,SSE,166,4.0,7.0,59,0.00,,,0.00,Wunderground v.1.15,2013-06-18 15:17:00,
2013-06-18 11:19:00,90.4,73.6,30.05,ESE,110,4.0,7.0,58,0.00,,,0.00,Wunderground v.1.15,2013-06-18 15:19:00,
2013-06-18 11:20:00,90.5,74.2,30.05,ENE,73,4.0,4.0,59,0.00,,,0.00,Wunderground v.1.15,2013-06-18 15:20:00,
2013-06-18 11:22:00,90.6,74.8,30.05,SE,146,4.0,7.0,60,0.00,,,0.00,Wunderground v.1.15,2013-06-18 15:22:00,
2013-06-18 11:23:00,90.5,74.7,30.05,SE,143,4.0,7.0,60,0.00,,,0.00,Wunderground v.1.15,2013-06-18 15:23:00,
2013-06-18 11:24:00,90.4,74.6,30.05,SE,131,4.0,7.0,60,0.00,,,0.00,Wunderground v.1.15,2013-06-18 15:24:00,
2013-06-18 11:25:00,90.3,75.0,30.05,ESE,110,4.0,7.0,61,0.00,,,0.00,Wunderground v.1.15,2013-06-18 15:25:00,
2013-06-18 11:28:00,90.4,75.1,30.05,SE,137,4.0,7.0,61,0.00,,,0.00,Wunderground v.1.15,2013-06-18 15:28:00,
2013-06-18 11:29:00,90.4,74.6,30.05,East,91,4.0,7.0,60,0.00,,,0.00,Wunderground v.1.15,2013-06-18 15:29:00,
2013-06-18 11:30:00,90.4,75.1,30.05,SSE,162,4.0,4.0,61,0.00,,,0.00,Wunderground v.1.15,2013-06-18 15:30:00,
2013-06-18 11:31:00,90.6,74.8,30.05,SE,142,4.0,5.0,60,0.00,,,0.00,Wunderground v.1.15,2013-06-18 15:31:00,
2013-06-18 11:34:00,90.6,74.3,30.05,SE,128,4.0,7.0,59,0.00,,,0.00,Wunderground v.1.15,2013-06-18 15:34:00,
2013-06-18 11:37:00,90.6,74.8,30.05,SE,139,4.0,7.0,60,0.00,,,0.00,Wunderground v.1.15,2013-06-18 15:37:00,
2013-06-18 11:40:00,90.6,74.3,30.05,ENE,70,4.0,7.0,59,0.00,,,0.00,Wunderground v.1.15,2013-06-18 15:40:00,
2013-06-18 11:43:00,90.8,74.5,30.05,SE,139,4.0,7.0,59,0.00,,,0.00,Wunderground v.1.15,2013-06-18 15:43:00,
2013-06-18 11:45:00,91.0,74.7,30.05,SSE,158,4.0,7.0,59,0.00,,,0.00,Wunderground v.1.15,2013-06-18 15:45:00,
2013-06-18 11:46:00,91.0,74.7,30.05,ESE,118,4.0,7.0,59,0.00,,,0.00,Wunderground v.1.15,2013-06-18 15:46:00,
2013-06-18 11:47:00,91.0,74.2,30.05,ENE,58,4.0,7.0,58,0.00,,,0.00,Wunderground v.1.15,2013-06-18 15:47:00,
2013-06-18 11:49:00,91.1,74.8,30.05,ESE,121,3.0,7.0,59,0.00,,,0.00,Wunderground v.1.15,2013-06-18 15:49:00,
2013-06-18 11:50:00,91.2,75.4,30.05,SE,129,3.0,7.0,60,0.00,,,0.00,Wunderground v.1.15,2013-06-18 15:50:00,
2013-06-18 11:51:00,91.3,75.0,30.05,ESE,123,3.0,7.0,59,0.00,,,0.00,Wunderground v.1.15,2013-06-18 15:51:00,
2013-06-18 11:57:00,90.6,73.3,30.05,South,180,4.0,12.0,57,0.00,,,0.00,Wunderground v.1.15,2013-06-18 15:57:00,
2013-06-18 11:58:00,90.5,73.7,30.05,SSE,156,4.0,12.0,58,0.00,,,0.00,Wunderground v.1.15,2013-06-18 15:58:00,
2013-06-18 12:00:00,90.6,74.3,30.04,NE,50,4.0,4.0,59,0.00,,,0.00,Wunderground v.1.15,2013-06-18 16:00:00,
2013-06-18 12:02:00,91.1,74.8,30.05,ESE,115,4.0,4.0,59,0.00,,,0.00,Wunderground v.1.15,2013-06-18 16:02:00,
2013-06-18 12:04:00,91.2,74.9,30.04,SE,143,3.0,4.0,59,0.00,,,0.00,Wunderground v.1.15,2013-06-18 16:04:00,
2013-06-18 12:07:00,91.4,74.5,30.04,South,182,3.0,5.0,58,0.00,,,0.00,Wunderground v.1.15,2013-06-18 16:07:00,
2013-06-18 12:08:00,91.4,74.0,30.04,SE,143,3.0,5.0,57,0.00,,,0.00,Wunderground v.1.15,2013-06-18 16:08:00,
2013-06-18 12:09:00,91.4,74.5,30.04,SSE,147,3.0,6.0,58,0.00,,,0.00,Wunderground v.1.15,2013-06-18 16:09:00,
2013-06-18 12:11:00,91.3,75.0,30.04,SE,129,4.0,7.0,59,0.00,,,0.00,Wunderground v.1.15,2013-06-18 16:11:00,
2013-06-18 12:12:00,91.1,74.3,30.04,SE,135,5.0,7.0,58,0.00,,,0.00,Wunderground v.1.15,2013-06-18 16:12:00,
2013-06-18 12:14:00,91.0,74.7,30.04,SSE,149,5.0,7.0,59,0.00,,,0.00,Wunderground v.1.15,2013-06-18 16:14:00,
2013-06-18 12:16:00,91.1,75.3,30.04,SSE,148,5.0,7.0,60,0.00,,,0.00,Wunderground v.1.15,2013-06-18 16:16:00,
2013-06-18 12:17:00,91.2,74.4,30.04,East,84,5.0,7.0,58,0.00,,,0.00,Wunderground v.1.15,2013-06-18 16:17:00,
2013-06-18 12:21:00,91.6,75.2,30.04,SE,141,4.0,8.0,59,0.00,,,0.00,Wunderground v.1.15,2013-06-18 16:21:00,
2013-06-18 12:22:00,91.4,75.1,30.04,SSE,158,4.0,8.0,59,0.00,,,0.00,Wunderground v.1.15,2013-06-18 16:22:00,
2013-06-18 12:24:00,91.3,75.5,30.04,ESE,120,4.0,8.0,60,0.00,,,0.00,Wunderground v.1.15,2013-06-18 16:24:00,
2013-06-18 12:29:00,91.0,75.2,30.04,ESE,113,5.0,8.0,60,0.00,,,0.00,Wunderground v.1.15,2013-06-18 16:29:00,
2013-06-18 12:30:00,90.9,75.1,30.04,ENE,76,5.0,8.0,60,0.00,,,0.00,Wunderground v.1.15,2013-06-18 16:30:00,
2013-06-18 12:32:00,90.7,74.9,30.04,ENE,62,5.0,10.0,60,0.00,,,0.00,Wunderground v.1.15,2013-06-18 16:32:00,
2013-06-18 12:33:00,90.7,75.4,30.04,ESE,110,5.0,10.0,61,0.00,,,0.00,Wunderground v.1.15,2013-06-18 16:33:00,
2013-06-18 12:34:00,90.7,74.9,30.04,ESE,115,5.0,10.0,60,0.00,,,0.00,Wunderground v.1.15,2013-06-18 16:34:00,
2013-06-18 12:38:00,90.6,74.8,30.04,SSE,156,5.0,10.0,60,0.00,,,0.00,Wunderground v.1.15,2013-06-18 16:38:00,
2013-06-18 12:39:00,90.6,74.8,30.04,East,101,5.0,10.0,60,0.00,,,0.00,Wunderground v.1.15,2013-06-18 16:39:00,
2013-06-18 12:41:00,90.8,75.0,30.04,ENE,78,4.0,10.0,60,0.00,,,0.00,Wunderground v.1.15,2013-06-18 16:41:00,
2013-06-18 12:43:00,91.0,75.7,30.04,East,83,4.0,10.0,61,0.00,,,0.00,Wunderground v.1.15,2013-06-18 16:43:00,
2013-06-18 12:45:00,91.2,75.4,30.04,SSE,152,4.0,10.0,60,0.00,,,0.00,Wunderground v.1.15,2013-06-18 16:45:00,
2013-06-18 12:47:00,91.2,74.9,30.04,SE,139,4.0,10.0,59,0.00,,,0.00,Wunderground v.1.15,2013-06-18 16:47:00,
2013-06-18 12:48:00,91.2,75.4,30.04,NE,47,4.0,10.0,60,0.00,,,0.00,Wunderground v.1.15,2013-06-18 16:48:00,
2013-06-18 12:50:00,91.4,76.1,30.03,SE,144,4.0,10.0,61,0.00,,,0.00,Wunderground v.1.15,2013-06-18 16:50:00,
2013-06-18 12:54:00,91.2,74.4,30.04,SE,145,5.0,10.0,58,0.00,,,0.00,Wunderground v.1.15,2013-06-18 16:54:00,
2013-06-18 12:56:00,91.0,74.7,30.04,SE,135,5.0,10.0,59,0.00,,,0.00,Wunderground v.1.15,2013-06-18 16:56:00,
2013-06-18 12:57:00,90.8,74.5,30.04,SE,131,5.0,10.0,59,0.00,,,0.00,Wunderground v.1.15,2013-06-18 16:57:00,
2013-06-18 12:58:00,90.7,74.4,30.04,ESE,123,5.0,10.0,59,0.00,,,0.00,Wunderground v.1.15,2013-06-18 16:58:00,
2013-06-18 13:02:00,90.8,74.5,30.03,ESE,107,6.0,6.0,59,0.00,,,0.00,Wunderground v.1.15,2013-06-18 17:02:00,
2013-06-18 13:03:00,90.9,74.6,30.03,SE,125,5.0,6.0,59,0.00,,,0.00,Wunderground v.1.15,2013-06-18 17:03:00,
2013-06-18 13:06:00,91.3,74.4,30.03,SE,145,4.0,6.0,58,0.00,,,0.00,Wunderground v.1.15,2013-06-18 17:06:00,
2013-06-18 13:08:00,91.3,74.4,30.03,SSE,148,4.0,6.0,58,0.00,,,0.00,Wunderground v.1.15,2013-06-18 17:08:00,
2013-06-18 13:10:00,91.2,73.8,30.03,NE,49,4.0,5.0,57,0.00,,,0.00,Wunderground v.1.15,2013-06-18 17:10:00,
2013-06-18 13:11:00,91.2,74.4,30.03,SE,134,4.0,5.0,58,0.00,,,0.00,Wunderground v.1.15,2013-06-18 17:11:00,
2013-06-18 13:12:00,91.2,74.4,30.03,SE,141,4.0,5.0,58,0.00,,,0.00,Wunderground v.1.15,2013-06-18 17:12:00,
2013-06-18 13:14:00,91.5,74.6,30.03,SE,133,4.0,5.0,58,0.00,,,0.00,Wunderground v.1.15,2013-06-18 17:14:00,
2013-06-18 13:15:00,91.6,74.2,30.03,SE,128,4.0,5.0,57,0.00,,,0.00,Wunderground v.1.15,2013-06-18 17:15:00,
2013-06-18 13:19:00,91.7,74.3,30.03,ESE,119,4.0,6.0,57,0.00,,,0.00,Wunderground v.1.15,2013-06-18 17:19:00,
2013-06-18 13:21:00,91.8,74.9,30.03,SSE,153,4.0,5.0,58,0.00,,,0.00,Wunderground v.1.15,2013-06-18 17:21:00,
2013-06-18 13:23:00,91.9,73.4,30.03,East,85,5.0,9.0,55,0.00,,,0.00,Wunderground v.1.15,2013-06-18 17:23:00,
2013-06-18 13:27:00,91.4,74.0,30.02,SE,124,5.0,9.0,57,0.00,,,0.00,Wunderground v.1.15,2013-06-18 17:27:00,
2013-06-18 13:29:00,91.7,74.3,30.02,SE,133,5.0,9.0,57,0.00,,,0.00,Wunderground v.1.15,2013-06-18 17:29:00,
2013-06-18 13:31:00,91.8,73.9,30.02,ENE,60,5.0,11.0,56,0.00,,,0.00,Wunderground v.1.15,2013-06-18 17:31:00,
2013-06-18 13:33:00,91.9,74.0,30.03,SE,131,5.0,11.0,56,0.00,,,0.00,Wunderground v.1.15,2013-06-18 17:33:00,
2013-06-18 13:34:00,91.8,73.3,30.02,East,94,5.0,11.0,55,0.00,,,0.00,Wunderground v.1.15,2013-06-18 17:34:00,
2013-06-18 13:35:00,91.9,74.0,30.02,ENE,62,4.0,11.0,56,0.00,,,0.00,Wunderground v.1.15,2013-06-18 17:35:00,
2013-06-18 13:38:00,92.0,74.1,30.02,SE,143,4.0,11.0,56,0.00,,,0.00,Wunderground v.1.15,2013-06-18 17:38:00,
2013-06-18 13:39:00,92.0,74.6,30.02,SSE,154,4.0,11.0,57,0.00,,,0.00,Wunderground v.1.15,2013-06-18 17:39:00,
2013-06-18 13:40:00,92.0,74.6,30.03,ESE,115,4.0,11.0,57,0.00,,,0.00,Wunderground v.1.15,2013-06-18 17:40:00,
2013-06-18 13:41:00,91.9,74.0,30.02,SSE,150,4.0,11.0,56,0.00,,,0.00,Wunderground v.1.15,2013-06-18 17:41:00,
2013-06-18 13:42:00,91.7,73.8,30.02,ENE,77,4.0,11.0,56,0.00,,,0.00,Wunderground v.1.15,2013-06-18 17:42:00,
2013-06-18 13:44:00,91.6,73.1,30.02,ENE,71,4.0,11.0,55,0.00,,,0.00,Wunderground v.1.15,2013-06-18 17:44:00,
2013-06-18 13:46:00,91.5,74.1,30.02,SE,136,4.0,11.0,57,0.00,,,0.00,Wunderground v.1.15,2013-06-18 17:46:00,
2013-06-18 13:50:00,91.8,74.4,30.02,SE,129,4.0,11.0,57,0.00,,,0.00,Wunderground v.1.15,2013-06-18 17:50:00,
2013-06-18 13:51:00,92.0,74.1,30.02,South,173,4.0,11.0,56,0.00,,,0.00,Wunderground v.1.15,2013-06-18 17:51:00,
2013-06-18 13:52:00,92.0,74.1,30.02,SE,141,4.0,11.0,56,0.00,,,0.00,Wunderground v.1.15,2013-06-18 17:52:00,
2013-06-18 13:56:00,92.3,73.8,30.02,ENE,68,4.0,11.0,55,0.00,,,0.00,Wunderground v.1.15,2013-06-18 17:56:00,
2013-06-18 13:57:00,92.2,73.2,30.03,SSE,161,4.0,11.0,54,0.00,,,0.00,Wunderground v.1.15,2013-06-18 17:57:00,
2013-06-18 13:59:00,92.2,73.7,30.02,ESE,120,3.0,11.0,55,0.00,,,0.00,Wunderground v.1.15,2013-06-18 17:59:00,
2013-06-18 14:00:00,92.3,73.8,30.02,SSE,148,4.0,4.0,55,0.00,,,0.00,Wunderground v.1.15,2013-06-18 18:00:00,
2013-06-18 14:01:00,92.3,73.8,30.02,SSE,152,4.0,4.0,55,0.00,,,0.00,Wunderground v.1.15,2013-06-18 18:01:00,
2013-06-18 14:04:00,92.4,73.3,30.02,SSE,150,4.0,5.0,54,0.00,,,0.00,Wunderground v.1.15,2013-06-18 18:04:00,
2013-06-18 14:05:00,92.4,74.4,30.02,SSE,162,4.0,5.0,56,0.00,,,0.00,Wunderground v.1.15,2013-06-18 18:05:00,
2013-06-18 14:07:00,92.4,73.9,30.02,ESE,123,4.0,5.0,55,0.00,,,0.00,Wunderground v.1.15,2013-06-18 18:07:00,
2013-06-18 14:10:00,92.3,73.8,30.02,SE,128,4.0,4.0,55,0.00,,,0.00,Wunderground v.1.15,2013-06-18 18:10:00,
2013-06-18 14:11:00,92.4,73.9,30.02,NE,55,4.0,5.0,55,0.00,,,0.00,Wunderground v.1.15,2013-06-18 18:11:00,
2013-06-18 14:14:00,92.3,73.2,30.02,East,98,4.0,6.0,54,0.00,,,0.00,Wunderground v.1.15,2013-06-18 18:14:00,
2013-06-18 14:15:00,92.2,73.7,30.02,ENE,69,4.0,7.0,55,0.00,,,0.00,Wunderground v.1.15,2013-06-18 18:15:00,
2013-06-18 14:16:00,92.1,73.6,30.02,ESE,114,4.0,7.0,55,0.00,,,0.00,Wunderground v.1.15,2013-06-18 18:16:00,
2013-06-18 14:17:00,92.2,74.2,30.02,SE,124,4.0,7.0,56,0.00,,,0.00,Wunderground v.1.15,2013-06-18 18:17:00,
2013-06-18 14:20:00,92.4,73.9,30.02,ESE,119,4.0,7.0,55,0.00,,,0.00,Wunderground v.1.15,2013-06-18 18:20:00,
2013-06-18 14:21:00,92.4,73.9,30.02,SSE,149,4.0,7.0,55,0.00,,,0.00,Wunderground v.1.15,2013-06-18 18:21:00,
2013-06-18 14:23:00,92.3,73.2,30.02,SSE,156,4.0,7.0,54,0.00,,,0.00,Wunderground v.1.15,2013-06-18 18:23:00,
2013-06-18 14:26:00,92.0,73.5,30.01,East,101,5.0,7.0,55,0.00,,,0.00,Wunderground v.1.15,2013-06-18 18:26:00,
2013-06-18 14:27:00,91.9,74.5,30.01,NE,52,5.0,7.0,57,0.00,,,0.00,Wunderground v.1.15,2013-06-18 18:27:00,
2013-06-18 14:28:00,91.9,74.5,30.01,SE,146,4.0,7.0,57,0.00,,,0.00,Wunderground v.1.15,2013-06-18 18:28:00,
2013-06-18 14:29:00,91.8,73.9,30.01,SSE,151,5.0,7.0,56,0.00,,,0.00,Wunderground v.1.15,2013-06-18 18:29:00,
2013-06-18 14:32:00,92.0,74.1,30.01,SE,143,4.0,13.0,56,0.00,,,0.00,Wunderground v.1.15,2013-06-18 18:32:00,
2013-06-18 14:33:00,92.0,74.1,30.01,East,99,4.0,13.0,56,0.00,,,0.00,Wunderground v.1.15,2013-06-18 18:33:00,
2013-06-18 14:37:00,92.0,74.6,30.01,East,90,5.0,13.0,57,0.00,,,0.00,Wunderground v.1.15,2013-06-18 18:37:00,
2013-06-18 14:38:00,92.0,74.6,30.01,East,99,5.0,13.0,57,0.00,,,0.00,Wunderground v.1.15,2013-06-18 18:38:00,
2013-06-18 14:39:00,92.0,74.6,30.01,SE,143,5.0,13.0,57,0.00,,,0.00,Wunderground v.1.15,2013-06-18 18:39:00,
2013-06-18 14:43:00,92.2,74.8,30.01,South,184,5.0,13.0,57,0.00,,,0.00,Wunderground v.1.15,2013-06-18 18:43:00,
2013-06-18 14:45:00,92.4,75.0,30.01,ESE,121,4.0,13.0,57,0.00,,,0.00,Wunderground v.1.15,2013-06-18 18:45:00,
2013-06-18 14:46:00,92.4,75.0,30.01,SE,127,4.0,13.0,57,0.00,,,0.00,Wunderground v.1.15,2013-06-18 18:46:00,
2013-06-18 14:48:00,92.5,75.6,30.01,SE,135,4.0,13.0,58,0.00,,,0.00,Wunderground v.1.15,2013-06-18 18:48:00,
2013-06-18 14:50:00,92.5,75.0,30.01,ESE,103,4.0,13.0,57,0.00,,,0.00,Wunderground v.1.15,2013-06-18 18:50:00,
2013-06-18 14:51:00,92.3,74.9,30.01,ENE,67,4.0,13.0,57,0.00,,,0.00,Wunderground v.1.15,2013-06-18 18:51:00,
2013-06-18 14:52:00,92.4,75.5,30.01,ESE,122,5.0,13.0,58,0.00,,,0.00,Wunderground v.1.15,2013-06-18 18:52:00,
2013-06-18 14:55:00,92.5,75.0,30.01,ESE,122,5.0,13.0,57,0.00,,,0.00,Wunderground v.1.15,2013-06-18 18:55:00,
2013-06-18 14:58:00,92.6,75.1,30.01,SSE,150,5.0,13.0,57,0.00,,,0.00,Wunderground v.1.15,2013-06-18 18:58:00,
2013-06-18 14:59:00,92.5,74.5,30.01,SSW,195,5.0,13.0,56,0.00,,,0.00,Wunderground v.1.15,2013-06-18 18:59:00,
2013-06-18 15:00:00,92.4,75.0,30.01,ENE,63,5.0,5.0,57,0.00,,,0.00,Wunderground v.1.15,2013-06-18 19:00:00,
2013-06-18 15:01:00,92.4,74.4,30.01,ESE,106,4.0,5.0,56,0.00,,,0.00,Wunderground v.1.15,2013-06-18 19:01:00,
2013-06-18 15:05:00,92.1,74.7,30.00,SSE,160,4.0,5.0,57,0.00,,,0.00,Wunderground v.1.15,2013-06-18 19:05:00,
2013-06-18 15:06:00,92.0,74.6,30.00,SE,124,4.0,5.0,57,0.00,,,0.00,Wunderground v.1.15,2013-06-18 19:06:00,
2013-06-18 15:08:00,91.8,74.9,30.00,SE,134,4.0,5.0,58,0.00,,,0.00,Wunderground v.1.15,2013-06-18 19:08:00,
2013-06-18 15:09:00,91.7,74.8,30.00,SSE,162,4.0,5.0,58,0.00,,,0.00,Wunderground v.1.15,2013-06-18 19:09:00,
2013-06-18 15:10:00,91.8,75.4,30.00,SE,131,4.0,4.0,59,0.00,,,0.00,Wunderground v.1.15,2013-06-18 19:10:00,
2013-06-18 15:12:00,91.7,74.3,30.00,SE,140,4.0,4.0,57,0.00,,,0.00,Wunderground v.1.15,2013-06-18 19:12:00,
2013-06-18 15:14:00,91.7,75.3,30.00,ESE,118,4.0,4.0,59,0.00,,,0.00,Wunderground v.1.15,2013-06-18 19:14:00,
2013-06-18 15:15:00,91.8,74.9,30.00,SE,124,4.0,5.0,58,0.00,,,0.00,Wunderground v.1.15,2013-06-18 19:15:00,
2013-06-18 15:19:00,91.7,74.8,30.00,SE,127,4.0,5.0,58,0.00,,,0.00,Wunderground v.1.15,2013-06-18 19:19:00,
2013-06-18 15:21:00,91.8,74.9,30.00,SSE,155,4.0,4.0,58,0.00,,,0.00,Wunderground v.1.15,2013-06-18 19:21:00,
2013-06-18 15:23:00,91.8,74.9,30.00,East,89,5.0,9.0,58,0.00,,,0.00,Wunderground v.1.15,2013-06-18 19:23:00,
2013-06-18 15:24:00,91.8,74.9,30.00,SE,145,5.0,9.0,58,0.00,,,0.00,Wunderground v.1.15,2013-06-18 19:24:00,
2013-06-18 15:25:00,91.7,74.3,30.00,ESE,123,5.0,9.0,57,0.00,,,0.00,Wunderground v.1.15,2013-06-18 19:25:00,
2013-06-18 15:27:00,91.7,74.8,30.00,SE,129,5.0,10.0,58,0.00,,,0.00,Wunderground v.1.15,2013-06-18 19:27:00,
2013-06-18 15:29:00,91.6,74.7,30.00,ESE,121,5.0,10.0,58,0.00,,,0.00,Wunderground v.1.15,2013-06-18 19:29:00,
2013-06-18 15:31:00,91.7,74.8,30.00,SE,125,5.0,11.0,58,0.00,,,0.00,Wunderground v.1.15,2013-06-18 19:31:00,
2013-06-18 15:32:00,91.8,74.9,30.00,SE,124,5.0,11.0,58,0.00,,,0.00,Wunderground v.1.15,2013-06-18 19:32:00,
2013-06-18 15:33:00,91.9,75.0,30.00,South,169,5.0,11.0,58,0.00,,,0.00,Wunderground v.1.15,2013-06-18 19:33:00,
2013-06-18 15:38:00,92.0,74.6,30.00,SE,134,5.0,11.0,57,0.00,,,0.00,Wunderground v.1.15,2013-06-18 19:38:00,
2013-06-18 15:39:00,92.0,74.1,30.00,East,84,5.0,11.0,56,0.00,,,0.00,Wunderground v.1.15,2013-06-18 19:39:00,
2013-06-18 15:40:00,92.1,74.7,30.00,ESE,122,5.0,11.0,57,0.00,,,0.00,Wunderground v.1.15,2013-06-18 19:40:00,
2013-06-18 15:41:00,92.2,74.8,29.99,SE,134,4.0,11.0,57,0.00,,,0.00,Wunderground v.1.15,2013-06-18 19:41:00,
2013-06-18 15:42:00,92.3,75.4,30.00,East,87,4.0,11.0,58,0.00,,,0.00,Wunderground v.1.15,2013-06-18 19:42:00,
2013-06-18 15:44:00,92.2,74.8,30.00,ESE,110,4.0,11.0,57,0.00,,,0.00,Wunderground v.1.15,2013-06-18 19:44:00,
2013-06-18 15:45:00,92.0,75.1,29.99,East,80,4.0,11.0,58,0.00,,,0.00,Wunderground v.1.15,2013-06-18 19:45:00,
2013-06-18 15:46:00,91.9,75.0,29.99,SE,146,4.0,11.0,58,0.00,,,0.00,Wunderground v.1.15,2013-06-18 19:46:00,
2013-06-18 15:51:00,91.6,74.7,30.00,SE,143,5.0,11.0,58,0.00,,,0.00,Wunderground v.1.15,2013-06-18 19:51:00,
2013-06-18 15:53:00,91.4,74.5,29.99,ESE,110,5.0,11.0,58,0.00,,,0.00,Wunderground v.1.15,2013-06-18 19:53:00,
2013-06-18 15:54:00,91.3,75.0,29.99,ESE,103,5.0,11.0,59,0.00,,,0.00,Wunderground v.1.15,2013-06-18 19:54:00,
2013-06-18 15:58:00,91.0,74.7,29.99,SE,134,5.0,11.0,59,0.00,,,0.00,Wunderground v.1.15,2013-06-18 19:58:00,
2013-06-18 15:59:00,91.0,74.7,29.99,SE,143,5.0,11.0,59,0.00,,,0.00,Wunderground v.1.15,2013-06-18 19:59:00,
2013-06-18 16:00:00,90.9,74.6,29.99,East,89,6.0,6.0,59,0.00,,,0.00,Wunderground v.1.15,2013-06-18 20:00:00,
2013-06-18 16:01:00,91.0,74.7,29.99,ENE,75,5.0,6.0,59,0.00,,,0.00,Wunderground v.1.15,2013-06-18 20:01:00,
2013-06-18 16:02:00,91.1,74.8,29.99,SSE,153,5.0,6.0,59,0.00,,,0.00,Wunderground v.1.15,2013-06-18 20:02:00,
2013-06-18 16:04:00,91.2,75.4,29.99,SSE,165,5.0,8.0,60,0.00,,,0.00,Wunderground v.1.15,2013-06-18 20:04:00,
2013-06-18 16:07:00,91.5,75.1,29.99,SE,134,5.0,8.0,59,0.00,,,0.00,Wunderground v.1.15,2013-06-18 20:07:00,
2013-06-18 16:08:00,91.5,75.1,29.99,ENE,74,5.0,8.0,59,0.00,,,0.00,Wunderground v.1.15,2013-06-18 20:08:00,
2013-06-18 16:10:00,91.4,74.5,29.99,East,100,5.0,5.0,58,0.00,,,0.00,Wunderground v.1.15,2013-06-18 20:10:00,
2013-06-18 16:11:00,91.4,74.5,29.99,South,169,4.0,5.0,58,0.00,,,0.00,Wunderground v.1.15,2013-06-18 20:11:00,
2013-06-18 16:13:00,91.4,74.5,29.99,ESE,105,5.0,6.0,58,0.00,,,0.00,Wunderground v.1.15,2013-06-18 20:13:00,
2013-06-18 16:14:00,91.4,74.5,29.99,SE,128,5.0,6.0,58,0.00,,,0.00,Wunderground v.1.15,2013-06-18 20:14:00,
2013-06-18 16:15:00,91.3,74.4,29.99,ESE,106,5.0,6.0,58,0.00,,,0.00,Wunderground v.1.15,2013-06-18 20:15:00,
2013-06-18 16:19:00,91.1,74.3,29.99,SE,136,5.0,10.0,58,0.00,,,0.00,Wunderground v.1.15,2013-06-18 20:19:00,
2013-06-18 16:23:00,91.0,75.2,29.99,East,84,5.0,6.0,60,0.00,,,0.00,Wunderground v.1.15,2013-06-18 20:23:00,
2013-06-18 16:24:00,91.1,75.3,29.99,SSE,147,5.0,6.0,60,0.00,,,0.00,Wunderground v.1.15,2013-06-18 20:24:00,
2013-06-18 16:27:00,91.4,74.0,29.99,SE,144,5.0,6.0,57,0.00,,,0.00,Wunderground v.1.15,2013-06-18 20:27:00,
2013-06-18 16:29:00,91.4,74.0,29.99,NE,53,5.0,7.0,57,0.00,,,0.00,Wunderground v.1.15,2013-06-18 20:29:00,
2013-06-18 16:32:00,91.3,73.9,29.99,ENE,71,5.0,12.0,57,0.00,,,0.00,Wunderground v.1.15,2013-06-18 20:32:00,
2013-06-18 16:33:00,91.3,74.4,29.99,SE,134,5.0,12.0,58,0.00,,,0.00,Wunderground v.1.15,2013-06-18 20:33:00,
2013-06-18 16:35:00,91.1,74.3,29.99,ESE,110,5.0,12.0,58,0.00,,,0.00,Wunderground v.1.15,2013-06-18 20:35:00,
2013-06-18 16:38:00,91.0,74.2,29.99,NE,56,6.0,12.0,58,0.00,,,0.00,Wunderground v.1.15,2013-06-18 20:38:00,
2013-06-18 16:39:00,91.0,73.7,29.98,South,177,6.0,12.0,57,0.00,,,0.00,Wunderground v.1.15,2013-06-18 20:39:00,
2013-06-18 16:43:00,91.1,74.8,29.98,SE,132,6.0,12.0,59,0.00,,,0.00,Wunderground v.1.15,2013-06-18 20:43:00,
2013-06-18 16:44:00,91.1,74.8,29.98,ESE,117,6.0,13.0,59,0.00,,,0.00,Wunderground v.1.15,2013-06-18 20:44:00,
2013-06-18 16:48:00,90.9,74.6,29.98,ESE,117,6.0,13.0,59,0.00,,,0.00,Wunderground v.1.15,2013-06-18 20:48:00,
2013-06-18 16:50:00,91.0,74.7,29.98,SE,141,6.0,6.0,59,0.00,,,0.00,Wunderground v.1.15,2013-06-18 20:50:00,
2013-06-18 16:53:00,91.0,74.2,29.98,ESE,122,5.0,12.0,58,0.00,,,0.00,Wunderground v.1.15,2013-06-18 20:53:00,
2013-06-18 16:54:00,91.1,73.7,29.98,ESE,122,5.0,12.0,57,0.00,,,0.00,Wunderground v.1.15,2013-06-18 20:54:00,
2013-06-18 16:58:00,91.2,74.4,29.98,SE,130,4.0,12.0,58,0.00,,,0.00,Wunderground v.1.15,2013-06-18 20:58:00,
2013-06-18 16:59:00,91.3,74.4,29.98,ESE,103,4.0,12.0,58,0.00,,,0.00,Wunderground v.1.15,2013-06-18 20:59:00,
2013-06-18 17:02:00,91.3,74.4,29.98,East,86,4.0,5.0,58,0.00,,,0.00,Wunderground v.1.15,2013-06-18 21:02:00,
2013-06-18 17:04:00,91.1,74.3,29.98,ENE,69,4.0,5.0,58,0.00,,,0.00,Wunderground v.1.15,2013-06-18 21:04:00,
2013-06-18 17:08:00,90.6,73.3,29.98,ESE,122,5.0,8.0,57,0.00,,,0.00,Wunderground v.1.15,2013-06-18 21:08:00,
2013-06-18 17:09:00,90.5,74.2,29.98,SSE,150,5.0,8.0,59,0.00,,,0.00,Wunderground v.1.15,2013-06-18 21:09:00,
2013-06-18 17:10:00,90.4,74.1,29.98,SE,141,5.0,5.0,59,0.00,,,0.00,Wunderground v.1.15,2013-06-18 21:10:00,
2013-06-18 17:11:00,90.3,74.0,29.98,SSE,152,5.0,6.0,59,0.00,,,0.00,Wunderground v.1.15,2013-06-18 21:11:00,
2013-06-18 17:15:00,90.2,74.9,29.98,SE,127,5.0,7.0,61,0.00,,,0.00,Wunderground v.1.15,2013-06-18 21:15:00,
2013-06-18 17:16:00,90.4,75.1,29.98,SSE,165,5.0,7.0,61,0.00,,,0.00,Wunderground v.1.15,2013-06-18 21:16:00,
2013-06-18 17:17:00,90.4,75.1,29.98,SE,131,5.0,7.0,61,0.00,,,0.00,Wunderground v.1.15,2013-06-18 21:17:00,
2013-06-18 17:18:00,90.3,75.0,29.98,SE,128,5.0,7.0,61,0.00,,,0.00,Wunderground v.1.15,2013-06-18 21:18:00,
2013-06-18 17:19:00,90.3,75.0,29.97,SE,140,5.0,7.0,61,0.00,,,0.00,Wunderground v.1.15,2013-06-18 21:19:00,
2013-06-18 17:24:00,90.8,75.5,29.98,SE,134,4.0,5.0,61,0.00,,,0.00,Wunderground v.1.15,2013-06-18 21:24:00,
2013-06-18 17:26:00,91.0,75.2,29.98,NE,46,4.0,5.0,60,0.00,,,0.00,Wunderground v.1.15,2013-06-18 21:26:00,
2013-06-18 17:27:00,91.0,75.2,29.98,ENE,71,4.0,5.0,60,0.00,,,0.00,Wunderground v.1.15,2013-06-18 21:27:00,
2013-06-18 17:28:00,91.0,75.7,29.97,East,82,3.0,5.0,61,0.00,,,0.00,Wunderground v.1.15,2013-06-18 21:28:00,
2013-06-18 17:32:00,90.9,75.1,29.98,SE,136,4.0,10.0,60,0.00,,,0.00,Wunderground v.1.15,2013-06-18 21:32:00,
2013-06-18 17:33:00,90.8,75.0,29.97,ENE,68,4.0,10.0,60,0.00,,,0.00,Wunderground v.1.15,2013-06-18 21:33:00,
2013-06-18 17:35:00,90.6,74.8,29.98,ESE,110,4.0,10.0,60,0.00,,,0.00,Wunderground v.1.15,2013-06-18 21:35:00,
2013-06-18 17:38:00,90.2,74.4,29.98,East,81,5.0,10.0,60,0.00,,,0.00,Wunderground v.1.15,2013-06-18 21:38:00,
2013-06-18 17:39:00,90.0,74.7,29.98,SE,134,5.0,10.0,61,0.00,,,0.00,Wunderground v.1.15,2013-06-18 21:39:00,
2013-06-18 17:41:00,89.8,75.0,29.97,SE,146,5.0,10.0,62,0.00,,,0.00,Wunderground v.1.15,2013-06-18 21:41:00,
2013-06-18 17:45:00,89.8,75.5,29.98,NNE,31,5.0,10.0,63,0.00,,,0.00,Wunderground v.1.15,2013-06-18 21:45:00,
2013-06-18 17:46:00,89.8,75.5,29.98,East,98,5.0,10.0,63,0.00,,,0.00,Wunderground v.1.15,2013-06-18 21:46:00,
2013-06-18 17:48:00,89.9,75.6,29.98,SE,141,5.0,10.0,63,0.00,,,0.00,Wunderground v.1.15,2013-06-18 21:48:00,
2013-06-18 17:51:00,90.0,75.2,29.98,SSE,148,4.0,10.0,62,0.00,,,0.00,Wunderground v.1.15,2013-06-18 21:51:00,
2013-06-18 17:53:00,90.0,75.2,29.98,SE,142,4.0,10.0,62,0.00,,,0.00,Wunderground v.1.15,2013-06-18 21:53:00,
2013-06-18 17:55:00,89.9,75.1,29.98,SSE,148,4.0,11.0,62,0.00,,,0.00,Wunderground v.1.15,2013-06-18 21:55:00,
2013-06-18 17:57:00,89.8,76.0,29.97,SE,124,5.0,11.0,64,0.00,,,0.00,Wunderground v.1.15,2013-06-18 21:57:00,
2013-06-18 17:58:00,89.8,75.5,29.97,NE,52,5.0,11.0,63,0.00,,,0.00,Wunderground v.1.15,2013-06-18 21:58:00,
2013-06-18 18:00:00,89.8,76.0,29.97,ESE,122,5.0,5.0,64,0.00,,,0.00,Wunderground v.1.15,2013-06-18 22:00:00,
2013-06-18 18:04:00,89.6,75.3,29.98,ESE,122,5.0,7.0,63,0.00,,,0.00,Wunderground v.1.15,2013-06-18 22:04:00,
2013-06-18 18:05:00,89.5,75.2,29.98,SSE,153,5.0,7.0,63,0.00,,,0.00,Wunderground v.1.15,2013-06-18 22:05:00,
2013-06-18 18:06:00,89.5,75.2,29.98,SE,127,5.0,7.0,63,0.00,,,0.00,Wunderground v.1.15,2013-06-18 22:06:00,
2013-06-18 18:07:00,89.5,75.7,29.97,East,89,5.0,7.0,64,0.00,,,0.00,Wunderground v.1.15,2013-06-18 22:07:00,
2013-06-18 18:11:00,89.4,75.6,29.97,ENE,66,5.0,7.0,64,0.00,,,0.00,Wunderground v.1.15,2013-06-18 22:11:00,
2013-06-18 18:13:00,89.5,75.7,29.97,South,190,5.0,7.0,64,0.00,,,0.00,Wunderground v.1.15,2013-06-18 22:13:00,
2013-06-18 18:14:00,89.4,75.6,29.97,SE,132,5.0,9.0,64,0.00,,,0.00,Wunderground v.1.15,2013-06-18 22:14:00,
2013-06-18 18:16:00,89.4,75.6,29.97,ESE,115,5.0,9.0,64,0.00,,,0.00,Wunderground v.1.15,2013-06-18 22:16:00,
2013-06-18 18:19:00,89.3,75.5,29.98,SE,137,5.0,9.0,64,0.00,,,0.00,Wunderground v.1.15,2013-06-18 22:19:00,
2013-06-18 18:20:00,89.3,75.5,29.98,SE,127,5.0,5.0,64,0.00,,,0.00,Wunderground v.1.15,2013-06-18 22:20:00,
2013-06-18 18:24:00,89.0,75.7,29.98,SE,139,5.0,7.0,65,0.00,,,0.00,Wunderground v.1.15,2013-06-18 22:24:00,
2013-06-18 18:25:00,89.0,75.7,29.98,South,171,5.0,7.0,65,0.00,,,0.00,Wunderground v.1.15,2013-06-18 22:25:00,
2013-06-18 18:26:00,89.0,75.7,29.98,ESE,120,5.0,7.0,65,0.00,,,0.00,Wunderground v.1.15,2013-06-18 22:26:00,
2013-06-18 18:29:00,89.1,76.3,29.98,SSE,152,4.0,7.0,66,0.00,,,0.00,Wunderground v.1.15,2013-06-18 22:29:00,
2013-06-18 18:31:00,88.8,75.5,29.98,SE,124,4.0,11.0,65,0.00,,,0.00,Wunderground v.1.15,2013-06-18 22:31:00,
2013-06-18 18:32:00,88.7,75.4,29.98,SSE,167,4.0,11.0,65,0.00,,,0.00,Wunderground v.1.15,2013-06-18 22:32:00,
2013-06-18 18:33:00,88.6,75.3,29.98,ESE,108,4.0,11.0,65,0.00,,,0.00,Wunderground v.1.15,2013-06-18 22:33:00,
2013-06-18 18:34:00,88.6,75.8,29.98,SSE,149,4.0,11.0,66,0.00,,,0.00,Wunderground v.1.15,2013-06-18 22:34:00,
2013-06-18 18:38:00,88.3,75.5,29.98,SE,131,5.0,11.0,66,0.00,,,0.00,Wunderground v.1.15,2013-06-18 22:38:00,
2013-06-18 18:39:00,88.1,75.3,29.98,East,89,5.0,11.0,66,0.00,,,0.00,Wunderground v.1.15,2013-06-18 22:39:00,
2013-06-18 18:42:00,87.9,75.6,29.97,SE,146,5.0,11.0,67,0.00,,,0.00,Wunderground v.1.15,2013-06-18 22:42:00,
2013-06-18 18:45:00,87.7,75.8,29.97,ESE,115,5.0,11.0,68,0.00,,,0.00,Wunderground v.1.15,2013-06-18 22:45:00,
2013-06-18 18:47:00,87.7,75.8,29.97,SE,134,5.0,11.0,68,0.00,,,0.00,Wunderground v.1.15,2013-06-18 22:47:00,
2013-06-18 18:50:00,87.7,75.4,29.97,South,173,5.0,11.0,67,0.00,,,0.00,Wunderground v.1.15,2013-06-18 22:50:00,
2013-06-18 18:52:00,87.7,75.4,29.97,South,174,5.0,11.0,67,0.00,,,0.00,Wunderground v.1.15,2013-06-18 22:52:00,
2013-06-18 18:53:00,87.7,75.4,29.97,SE,146,5.0,11.0,67,0.00,,,0.00,Wunderground v.1.15,2013-06-18 22:53:00,
2013-06-18 18:57:00,87.4,75.1,29.97,SE,141,5.0,11.0,67,0.00,,,0.00,Wunderground v.1.15,2013-06-18 22:57:00,
2013-06-18 19:00:00,87.0,75.6,29.97,ESE,120,5.0,5.0,69,0.00,,,0.00,Wunderground v.1.15,2013-06-18 23:00:00,
2013-06-18 19:02:00,86.9,75.5,29.97,SE,127,5.0,5.0,69,0.00,,,0.00,Wunderground v.1.15,2013-06-18 23:02:00,
2013-06-18 19:04:00,86.8,75.4,29.98,SSE,149,4.0,5.0,69,0.00,,,0.00,Wunderground v.1.15,2013-06-18 23:04:00,
2013-06-18 19:05:00,86.7,75.3,29.97,ENE,69,4.0,5.0,69,0.00,,,0.00,Wunderground v.1.15,2013-06-18 23:05:00,
2013-06-18 19:07:00,86.5,75.1,29.98,SSE,162,4.0,5.0,69,0.00,,,0.00,Wunderground v.1.15,2013-06-18 23:07:00,
2013-06-18 19:10:00,86.3,75.4,29.98,SSE,148,4.0,5.0,70,0.00,,,0.00,Wunderground v.1.15,2013-06-18 23:10:00,
2013-06-18 19:11:00,86.2,75.7,29.98,SSE,148,4.0,7.0,71,0.00,,,0.00,Wunderground v.1.15,2013-06-18 23:11:00,
2013-06-18 19:12:00,86.1,75.6,29.98,SE,139,4.0,7.0,71,0.00,,,0.00,Wunderground v.1.15,2013-06-18 23:12:00,
2013-06-18 19:14:00,86.1,75.2,29.98,ESE,114,5.0,7.0,70,0.00,,,0.00,Wunderground v.1.15,2013-06-18 23:14:00,
2013-06-18 19:16:00,85.9,75.4,29.98,South,185,5.0,7.0,71,0.00,,,0.00,Wunderground v.1.15,2013-06-18 23:16:00,
2013-06-18 19:20:00,85.8,75.3,29.98,ESE,117,4.0,4.0,71,0.00,,,0.00,Wunderground v.1.15,2013-06-18 23:20:00,
2013-06-18 19:21:00,85.7,75.2,29.98,SSE,155,4.0,4.0,71,0.00,,,0.00,Wunderground v.1.15,2013-06-18 23:21:00,
2013-06-18 19:23:00,85.6,75.1,29.98,SSE,153,4.0,4.0,71,0.00,,,0.00,Wunderground v.1.15,2013-06-18 23:23:00,
2013-06-18 19:26:00,85.6,75.1,29.99,ESE,112,3.0,4.0,71,0.00,,,0.00,Wunderground v.1.15,2013-06-18 23:26:00,
2013-06-18 19:27:00,85.5,75.0,29.99,SSW,208,3.0,4.0,71,0.00,,,0.00,Wunderground v.1.15,2013-06-18 23:27:00,
2013-06-18 19:29:00,85.5,75.4,29.99,East,96,3.0,6.0,72,0.00,,,0.00,Wunderground v.1.15,2013-06-18 23:29:00,
2013-06-18 19:32:00,85.2,75.6,29.99,SE,128,3.0,12.0,73,0.00,,,0.00,Wunderground v.1.15,2013-06-18 23:32:00,
2013-06-18 19:33:00,85.2,75.6,29.99,ESE,116,3.0,12.0,73,0.00,,,0.00,Wunderground v.1.15,2013-06-18 23:33:00,
2013-06-18 19:35:00,85.1,75.5,29.99,East,86,3.0,12.0,73,0.00,,,0.00,Wunderground v.1.15,2013-06-18 23:35:00,
2013-06-18 19:37:00,85.0,75.4,29.99,SSE,150,4.0,12.0,73,0.00,,,0.00,Wunderground v.1.15,2013-06-18 23:37:00,
2013-06-18 19:39:00,84.9,75.3,29.99,SE,133,4.0,12.0,73,0.00,,,0.00,Wunderground v.1.15,2013-06-18 23:39:00,
2013-06-18 19:40:00,84.9,75.3,29.99,SE,126,4.0,12.0,73,0.00,,,0.00,Wunderground v.1.15,2013-06-18 23:40:00,
2013-06-18 19:41:00,84.8,75.2,29.99,SE,134,4.0,12.0,73,0.00,,,0.00,Wunderground v.1.15,2013-06-18 23:41:00,
2013-06-18 19:46:00,84.7,75.5,29.99,SE,127,4.0,12.0,74,0.00,,,0.00,Wunderground v.1.15,2013-06-18 23:46:00,
2013-06-18 19:47:00,84.7,75.5,29.99,SE,143,4.0,12.0,74,0.00,,,0.00,Wunderground v.1.15,2013-06-18 23:47:00,
2013-06-18 19:48:00,84.6,75.4,29.99,ENE,69,4.0,12.0,74,0.00,,,0.00,Wunderground v.1.15,2013-06-18 23:48:00,
2013-06-18 19:50:00,84.6,75.4,29.99,SE,139,4.0,4.0,74,0.00,,,0.00,Wunderground v.1.15,2013-06-18 23:50:00,
2013-06-18 19:53:00,84.5,75.3,29.99,SSE,162,4.0,12.0,74,0.00,,,0.00,Wunderground v.1.15,2013-06-18 23:53:00,
2013-06-18 19:54:00,84.5,75.3,29.99,ESE,123,3.0,12.0,74,0.00,,,0.00,Wunderground v.1.15,2013-06-18 23:54:00,
2013-06-18 19:56:00,84.5,75.3,29.99,SE,131,3.0,12.0,74,0.00,,,0.00,Wunderground v.1.15,2013-06-18 23:56:00,
2013-06-18 20:00:00,84.3,75.5,29.99,SE,128,4.0,6.0,75,0.00,,,0.00,Wunderground v.1.15,2013-06-19 00:00:00,
2013-06-18 20:01:00,84.3,75.5,29.99,ESE,110,4.0,6.0,75,0.00,,,0.00,Wunderground v.1.15,2013-06-19 00:01:00,
2013-06-18 20:02:00,84.3,75.1,29.99,East,94,4.0,6.0,74,0.00,,,0.00,Wunderground v.1.15,2013-06-19 00:02:00,
2013-06-18 20:03:00,84.3,75.1,29.99,ENE,77,4.0,6.0,74,0.00,,,0.00,Wunderground v.1.15,2013-06-19 00:03:00,
2013-06-18 20:07:00,84.2,75.0,29.99,SE,139,4.0,6.0,74,0.00,,,0.00,Wunderground v.1.15,2013-06-19 00:07:00,
2013-06-18 20:09:00,84.2,75.0,29.99,ESE,123,4.0,6.0,74,0.00,,,0.00,Wunderground v.1.15,2013-06-19 00:09:00,
2013-06-18 20:11:00,84.1,74.9,29.99,ESE,110,4.0,4.0,74,0.00,,,0.00,Wunderground v.1.15,2013-06-19 00:11:00,
2013-06-18 20:13:00,84.1,74.9,29.99,SW,214,4.0,4.0,74,0.00,,,0.00,Wunderground v.1.15,2013-06-19 00:13:00,
2013-06-18 20:15:00,84.1,74.9,29.99,SSE,150,4.0,4.0,74,0.00,,,0.00,Wunderground v.1.15,2013-06-19 00:15:00,
2013-06-18 20:19:00,84.0,74.8,29.99,SSE,156,4.0,5.0,74,0.00,,,0.00,Wunderground v.1.15,2013-06-19 00:19:00,
2013-06-18 20:20:00,84.0,74.8,29.99,ESE,108,4.0,4.0,74,0.00,,,0.00,Wunderground v.1.15,2013-06-19 00:20:00,
2013-06-18 20:22:00,84.0,74.8,29.99,East,88,4.0,6.0,74,0.00,,,0.00,Wunderground v.1.15,2013-06-19 00:22:00,
2013-06-18 20:24:00,83.9,74.7,29.99,SSE,153,4.0,6.0,74,0.00,,,0.00,Wunderground v.1.15,2013-06-19 00:24:00,
2013-06-18 20:25:00,83.9,74.7,29.99,ESE,121,4.0,6.0,74,0.00,,,0.00,Wunderground v.1.15,2013-06-19 00:25:00,
2013-06-18 20:28:00,83.9,74.7,29.99,SSE,161,4.0,6.0,74,0.00,,,0.00,Wunderground v.1.15,2013-06-19 00:28:00,
2013-06-18 20:29:00,83.9,74.7,29.99,ESE,104,4.0,6.0,74,0.00,,,0.00,Wunderground v.1.15,2013-06-19 00:29:00,
2013-06-18 20:31:00,83.9,74.7,30.00,South,177,3.0,6.0,74,0.00,,,0.00,Wunderground v.1.15,2013-06-19 00:31:00,
2013-06-18 20:32:00,83.9,74.7,30.00,ESE,123,3.0,11.0,74,0.00,,,0.00,Wunderground v.1.15,2013-06-19 00:32:00,
2013-06-18 20:36:00,83.9,74.7,30.00,East,89,3.0,11.0,74,0.00,,,0.00,Wunderground v.1.15,2013-06-19 00:36:00,
2013-06-18 20:38:00,83.9,74.7,30.00,SSE,158,3.0,11.0,74,0.00,,,0.00,Wunderground v.1.15,2013-06-19 00:38:00,
2013-06-18 20:40:00,83.8,74.6,30.00,SSE,160,3.0,11.0,74,0.00,,,0.00,Wunderground v.1.15,2013-06-19 00:40:00,
2013-06-18 20:42:00,83.8,74.6,30.00,East,89,3.0,11.0,74,0.00,,,0.00,Wunderground v.1.15,2013-06-19 00:42:00,
2013-06-18 20:44:00,83.7,74.9,30.00,SSE,148,3.0,11.0,75,0.00,,,0.00,Wunderground v.1.15,2013-06-19 00:44:00,
2013-06-18 20:46:00,83.8,75.0,30.00,South,182,3.0,11.0,75,0.00,,,0.00,Wunderground v.1.15,2013-06-19 00:46:00,
2013-06-18 20:47:00,83.8,75.0,30.00,SSE,159,3.0,11.0,75,0.00,,,0.00,Wunderground v.1.15,2013-06-19 00:47:00,
2013-06-18 20:49:00,83.8,75.0,30.00,ESE,117,2.0,11.0,75,0.00,,,0.00,Wunderground v.1.15,2013-06-19 00:49:00,
2013-06-18 20:50:00,83.8,75.0,30.00,SSE,155,2.0,11.0,75,0.00,,,0.00,Wunderground v.1.15,2013-06-19 00:50:00,
2013-06-18 20:52:00,83.8,75.0,30.00,SSE,153,2.0,11.0,75,0.00,,,0.00,Wunderground v.1.15,2013-06-19 00:52:00,
2013-06-18 20:55:00,83.7,74.9,30.00,East,82,2.0,11.0,75,0.00,,,0.00,Wunderground v.1.15,2013-06-19 00:55:00,
2013-06-18 20:56:00,83.7,74.9,30.00,SSE,151,2.0,11.0,75,0.00,,,0.00,Wunderground v.1.15,2013-06-19 00:56:00,
2013-06-18 20:58:00,83.7,75.3,30.01,SE,140,2.0,11.0,76,0.00,,,0.00,Wunderground v.1.15,2013-06-19 00:58:00,
2013-06-18 21:00:00,83.7,75.3,30.01,SSE,165,2.0,4.0,76,0.00,,,0.00,Wunderground v.1.15,2013-06-19 01:00:00,
2013-06-18 21:02:00,83.6,74.8,30.01,SE,144,2.0,4.0,75,0.00,,,0.00,Wunderground v.1.15,2013-06-19 01:02:00,
2013-06-18 21:04:00,83.6,74.8,30.00,SSW,192,2.0,4.0,75,0.00,,,0.00,Wunderground v.1.15,2013-06-19 01:04:00,
2013-06-18 21:05:00,83.6,74.8,30.00,SSE,149,2.0,4.0,75,0.00,,,0.00,Wunderground v.1.15,2013-06-19 01:05:00,
2013-06-18 21:06:00,83.5,74.7,30.00,SSE,160,2.0,4.0,75,0.00,,,0.00,Wunderground v.1.15,2013-06-19 01:06:00,
2013-06-18 21:07:00,83.5,74.7,30.00,SE,134,2.0,4.0,75,0.00,,,0.00,Wunderground v.1.15,2013-06-19 01:07:00,
2013-06-18 21:09:00,83.5,74.7,30.00,SSE,156,3.0,6.0,75,0.00,,,0.00,Wunderground v.1.15,2013-06-19 01:09:00,
2013-06-18 21:11:00,83.5,75.1,30.00,SSE,160,3.0,4.0,76,0.00,,,0.00,Wunderground v.1.15,2013-06-19 01:11:00,
2013-06-18 21:13:00,83.6,75.2,30.01,ESE,120,3.0,4.0,76,0.00,,,0.00,Wunderground v.1.15,2013-06-19 01:13:00,
2013-06-18 21:14:00,83.5,75.1,30.01,South,169,3.0,4.0,76,0.00,,,0.00,Wunderground v.1.15,2013-06-19 01:14:00,
2013-06-18 21:17:00,83.5,75.1,30.01,SSE,149,3.0,4.0,76,0.00,,,0.00,Wunderground v.1.15,2013-06-19 01:17:00,
2013-06-18 21:20:00,83.4,75.0,30.01,ESE,122,3.0,3.0,76,0.00,,,0.00,Wunderground v.1.15,2013-06-19 01:20:00,
2013-06-18 21:21:00,83.4,75.0,30.00,South,191,3.0,3.0,76,0.00,,,0.00,Wunderground v.1.15,2013-06-19 01:21:00,
2013-06-18 21:22:00,83.4,75.4,30.01,SSE,150,2.0,3.0,77,0.00,,,0.00,Wunderground v.1.15,2013-06-19 01:22:00,
2013-06-18 21:26:00,83.4,75.4,30.01,ESE,106,2.0,3.0,77,0.00,,,0.00,Wunderground v.1.15,2013-06-19 01:26:00,
2013-06-18 21:27:00,83.4,75.0,30.01,SSW,200,2.0,3.0,76,0.00,,,0.00,Wunderground v.1.15,2013-06-19 01:27:00,
2013-06-18 21:29:00,83.4,75.4,30.01,ESE,112,2.0,4.0,77,0.00,,,0.00,Wunderground v.1.15,2013-06-19 01:29:00,
2013-06-18 21:32:00,83.4,75.0,30.01,ESE,117,2.0,12.0,76,0.00,,,0.00,Wunderground v.1.15,2013-06-19 01:32:00,
2013-06-18 21:34:00,83.4,75.0,30.01,SE,129,2.0,12.0,76,0.00,,,0.00,Wunderground v.1.15,2013-06-19 01:34:00,
2013-06-18 21:35:00,83.4,75.0,30.01,SSE,150,2.0,12.0,76,0.00,,,0.00,Wunderground v.1.15,2013-06-19 01:35:00,
2013-06-18 21:36:00,83.4,75.4,30.01,SE,139,2.0,12.0,77,0.00,,,0.00,Wunderground v.1.15,2013-06-19 01:36:00,
2013-06-18 21:40:00,83.3,75.3,30.00,SE,140,2.0,12.0,77,0.00,,,0.00,Wunderground v.1.15,2013-06-19 01:40:00,
2013-06-18 21:41:00,83.3,75.3,30.01,SE,128,3.0,12.0,77,0.00,,,0.00,Wunderground v.1.15,2013-06-19 01:41:00,
2013-06-18 21:44:00,83.3,75.3,30.01,SE,134,2.0,12.0,77,0.00,,,0.00,Wunderground v.1.15,2013-06-19 01:44:00,
2013-06-18 21:45:00,83.3,75.3,30.01,NE,41,2.0,12.0,77,0.00,,,0.00,Wunderground v.1.15,2013-06-19 01:45:00,
2013-06-18 21:46:00,83.3,75.3,30.01,SE,144,2.0,12.0,77,0.00,,,0.00,Wunderground v.1.15,2013-06-19 01:46:00,
2013-06-18 21:47:00,83.2,75.2,30.01,ESE,110,3.0,12.0,77,0.00,,,0.00,Wunderground v.1.15,2013-06-19 01:47:00,
2013-06-18 21:48:00,83.2,75.2,30.01,SSE,147,3.0,12.0,77,0.00,,,0.00,Wunderground v.1.15,2013-06-19 01:48:00,
2013-06-18 21:52:00,83.2,75.6,30.01,SSE,156,2.0,12.0,78,0.00,,,0.00,Wunderground v.1.15,2013-06-19 01:52:00,
2013-06-18 21:53:00,83.1,75.5,30.01,ESE,117,2.0,12.0,78,0.00,,,0.00,Wunderground v.1.15,2013-06-19 01:53:00,
2013-06-18 21:55:00,83.1,75.5,30.01,SE,141,2.0,12.0,78,0.00,,,0.00,Wunderground v.1.15,2013-06-19 01:55:00,
2013-06-18 21:58:00,83.1,75.5,30.01,SE,134,2.0,12.0,78,0.00,,,0.00,Wunderground v.1.15,2013-06-19 01:58:00,
2013-06-18 22:03:00,83.1,75.5,30.01,SE,139,3.0,6.0,78,0.00,,,0.00,Wunderground v.1.15,2013-06-19 02:03:00,
2013-06-18 22:04:00,83.1,75.5,30.01,SSE,165,3.0,6.0,78,0.00,,,0.00,Wunderground v.1.15,2013-06-19 02:04:00,
2013-06-18 22:06:00,83.1,75.5,30.01,SE,131,3.0,6.0,78,0.00,,,0.00,Wunderground v.1.15,2013-06-19 02:06:00,
2013-06-18 22:07:00,83.1,75.5,30.01,ENE,74,3.0,6.0,78,0.00,,,0.00,Wunderground v.1.15,2013-06-19 02:07:00,
2013-06-18 22:09:00,83.1,75.9,30.01,SE,135,2.0,6.0,79,0.00,,,0.00,Wunderground v.1.15,2013-06-19 02:09:00,
2013-06-18 22:14:00,83.0,75.8,30.01,South,180,2.0,4.0,79,0.00,,,0.00,Wunderground v.1.15,2013-06-19 02:14:00,
2013-06-18 22:15:00,83.0,75.8,30.01,ESE,122,2.0,7.0,79,0.00,,,0.00,Wunderground v.1.15,2013-06-19 02:15:00,
2013-06-18 22:19:00,83.0,75.8,30.01,SSE,147,3.0,7.0,79,0.00,,,0.00,Wunderground v.1.15,2013-06-19 02:19:00,
2013-06-18 22:20:00,83.0,75.8,30.01,SE,126,3.0,3.0,79,0.00,,,0.00,Wunderground v.1.15,2013-06-19 02:20:00,
2013-06-18 22:21:00,83.0,75.8,30.01,SE,131,2.0,5.0,79,0.00,,,0.00,Wunderground v.1.15,2013-06-19 02:21:00,
2013-06-18 22:26:00,83.0,75.8,30.00,SE,131,2.0,6.0,79,0.00,,,0.00,Wunderground v.1.15,2013-06-19 02:26:00,
2013-06-18 22:28:00,83.0,75.8,30.00,South,184,2.0,6.0,79,0.00,,,0.00,Wunderground v.1.15,2013-06-19 02:28:00,
2013-06-18 22:29:00,82.9,75.7,30.00,SE,128,2.0,6.0,79,0.00,,,0.00,Wunderground v.1.15,2013-06-19 02:29:00,
2013-06-18 22:31:00,82.9,75.7,30.00,SSE,165,2.0,8.0,79,0.00,,,0.00,Wunderground v.1.15,2013-06-19 02:31:00,
2013-06-18 22:34:00,82.9,75.7,30.00,SSW,200,2.0,8.0,79,0.00,,,0.00,Wunderground v.1.15,2013-06-19 02:34:00,
2013-06-18 22:35:00,82.9,75.7,30.01,SE,139,2.0,8.0,79,0.00,,,0.00,Wunderground v.1.15,2013-06-19 02:35:00,
2013-06-18 22:36:00,82.9,76.1,30.01,SE,129,2.0,8.0,80,0.00,,,0.00,Wunderground v.1.15,2013-06-19 02:36:00,
2013-06-18 22:38:00,82.9,76.1,30.00,ESE,116,2.0,8.0,80,0.00,,,0.00,Wunderground v.1.15,2013-06-19 02:38:00,
2013-06-18 22:40:00,82.9,76.1,30.00,SE,130,2.0,8.0,80,0.00,,,0.00,Wunderground v.1.15,2013-06-19 02:40:00,
2013-06-18 22:41:00,82.9,76.1,30.00,ESE,122,2.0,8.0,80,0.00,,,0.00,Wunderground v.1.15,2013-06-19 02:41:00,
2013-06-18 22:42:00,82.8,76.0,30.00,SE,127,2.0,8.0,80,0.00,,,0.00,Wunderground v.1.15,2013-06-19 02:42:00,
2013-06-18 22:43:00,82.8,76.0,30.00,SSE,160,2.0,8.0,80,0.00,,,0.00,Wunderground v.1.15,2013-06-19 02:43:00,
2013-06-18 22:46:00,82.8,76.0,30.01,East,97,2.0,8.0,80,0.00,,,0.00,Wunderground v.1.15,2013-06-19 02:46:00,
2013-06-18 22:48:00,82.8,76.0,30.01,SE,141,2.0,8.0,80,0.00,,,0.00,Wunderground v.1.15,2013-06-19 02:48:00,
2013-06-18 22:49:00,82.8,76.0,30.01,SE,128,2.0,8.0,80,0.00,,,0.00,Wunderground v.1.15,2013-06-19 02:49:00,
2013-06-18 22:51:00,82.8,76.0,30.01,East,91,2.0,8.0,80,0.00,,,0.00,Wunderground v.1.15,2013-06-19 02:51:00,
2013-06-18 22:52:00,82.7,75.9,30.01,East,84,2.0,8.0,80,0.00,,,0.00,Wunderground v.1.15,2013-06-19 02:52:00,
2013-06-18 22:54:00,82.7,75.9,30.01,East,91,1.0,8.0,80,0.00,,,0.00,Wunderground v.1.15,2013-06-19 02:54:00,
2013-06-18 22:56:00,82.7,75.9,30.01,ESE,113,1.0,8.0,80,0.00,,,0.00,Wunderground v.1.15,2013-06-19 02:56:00,
2013-06-18 22:58:00,82.7,75.9,30.01,East,89,1.0,8.0,80,0.00,,,0.00,Wunderground v.1.15,2013-06-19 02:58:00,
2013-06-18 23:00:00,82.6,75.8,30.01,ESE,102,2.0,2.0,80,0.00,,,0.00,Wunderground v.1.15,2013-06-19 03:00:00,
2013-06-18 23:01:00,82.6,75.8,30.01,ESE,113,2.0,2.0,80,0.00,,,0.00,Wunderground v.1.15,2013-06-19 03:01:00,
2013-06-18 23:02:00,82.6,75.8,30.01,SE,135,2.0,3.0,80,0.00,,,0.00,Wunderground v.1.15,2013-06-19 03:02:00,
2013-06-18 23:03:00,82.6,75.8,30.02,SSE,152,2.0,3.0,80,0.00,,,0.00,Wunderground v.1.15,2013-06-19 03:03:00,
2013-06-18 23:06:00,82.6,75.8,30.02,ESE,122,2.0,3.0,80,0.00,,,0.00,Wunderground v.1.15,2013-06-19 03:06:00,
2013-06-18 23:07:00,82.6,75.8,30.02,SSE,168,2.0,3.0,80,0.00,,,0.00,Wunderground v.1.15,2013-06-19 03:07:00,
2013-06-18 23:08:00,82.6,75.8,30.02,ESE,117,2.0,3.0,80,0.00,,,0.00,Wunderground v.1.15,2013-06-19 03:08:00,
2013-06-18 23:11:00,82.6,75.8,30.02,SE,144,1.0,1.0,80,0.00,,,0.00,Wunderground v.1.15,2013-06-19 03:11:00,
2013-06-18 23:12:00,82.6,75.8,30.02,SE,144,1.0,1.0,80,0.00,,,0.00,Wunderground v.1.15,2013-06-19 03:12:00,
2013-06-18 23:13:00,82.6,75.8,30.03,East,101,1.0,1.0,80,0.00,,,0.00,Wunderground v.1.15,2013-06-19 03:13:00,
2013-06-18 23:15:00,82.6,75.8,30.03,ESE,117,1.0,1.0,80,0.00,,,0.00,Wunderground v.1.15,2013-06-19 03:15:00,
2013-06-18 23:20:00,82.6,75.8,30.03,SE,138,1.0,1.0,80,0.00,,,0.00,Wunderground v.1.15,2013-06-19 03:20:00,
2013-06-18 23:22:00,82.7,75.9,30.03,South,179,1.0,1.0,80,0.00,,,0.00,Wunderground v.1.15,2013-06-19 03:22:00,
2013-06-18 23:25:00,82.6,75.8,30.03,SSE,164,1.0,1.0,80,0.00,,,0.00,Wunderground v.1.15,2013-06-19 03:25:00,
2013-06-18 23:26:00,82.6,75.8,30.03,SE,136,1.0,2.0,80,0.00,,,0.00,Wunderground v.1.15,2013-06-19 03:26:00,
2013-06-18 23:27:00,82.6,75.8,30.03,SE,140,1.0,2.0,80,0.00,,,0.00,Wunderground v.1.15,2013-06-19 03:27:00,
2013-06-18 23:29:00,82.6,75.8,30.03,SSW,196,1.0,2.0,80,0.00,,,0.00,Wunderground v.1.15,2013-06-19 03:29:00,
2013-06-18 23:32:00,82.6,75.8,30.03,South,169,1.0,7.0,80,0.00,,,0.00,Wunderground v.1.15,2013-06-19 03:32:00,
2013-06-18 23:35:00,82.6,75.8,30.03,SSE,167,2.0,7.0,80,0.00,,,0.00,Wunderground v.1.15,2013-06-19 03:35:00,
2013-06-18 23:38:00,82.7,75.9,30.03,SE,139,2.0,7.0,80,0.00,,,0.00,Wunderground v.1.15,2013-06-19 03:38:00,
2013-06-18 23:39:00,82.7,75.9,30.03,SE,139,2.0,7.0,80,0.00,,,0.00,Wunderground v.1.15,2013-06-19 03:39:00,
2013-06-18 23:43:00,82.6,75.8,30.03,SE,136,2.0,7.0,80,0.00,,,0.00,Wunderground v.1.15,2013-06-19 03:43:00,
2013-06-18 23:46:00,82.6,75.8,30.03,SSE,155,2.0,7.0,80,0.00,,,0.00,Wunderground v.1.15,2013-06-19 03:46:00,
2013-06-18 23:49:00,82.5,75.7,30.03,SSE,160,1.0,7.0,80,0.00,,,0.00,Wunderground v.1.15,2013-06-19 03:49:00,
2013-06-18 23:51:00,82.5,75.7,30.03,SE,131,1.0,7.0,80,0.00,,,0.00,Wunderground v.1.15,2013-06-19 03:51:00,
2013-06-18 23:52:00,82.4,75.6,30.03,South,178,1.0,7.0,80,0.00,,,0.00,Wunderground v.1.15,2013-06-19 03:52:00,
2013-06-18 23:53:00,82.4,75.6,30.03,SE,139,1.0,7.0,80,0.00,,,0.00,Wunderground v.1.15,2013-06-19 03:53:00,
2013-06-18 23:54:00,82.4,75.6,30.03,SE,141,1.0,7.0,80,0.00,,,0.00,Wunderground v.1.15,2013-06-19 03:54:00,
2013-06-18 23:56:00,82.3,75.5,30.03,SE,129,0.0,7.0,80,0.00,,,0.00,Wunderground v.1.15,2013-06-19 03:56:00,